PD2BVG Weather Reports


time (UTC)temp
C
wind
direction
speed
KPH
gust
KPH
rain 1hr
cm
rain 24hr
cm
rain mn
cm
humidity
%
barometer
mb
20260902034403 -17 196 3.2 8.0 0.00 0.03 0.00 1019.7
20260902034303 -17 196 3.2 8.0 0.00 0.03 0.00 1019.8
20260902034203 -17 196 3.2 8.0 0.00 0.03 0.00 1019.6
20260902034104 -17 196 4.8 8.0 0.00 0.03 0.00 1019.6
20260902034005 -17 196 4.8 8.0 0.00 0.03 0.00 1019.7
20260902033904 -17 195 3.2 6.4 0.00 0.03 0.00 1019.7
20260902033802 -17 195 4.8 6.4 0.00 0.03 0.00 1019.6
20260902033703 -17 196 3.2 6.4 0.00 0.03 0.00 1019.7
20260902033603 -17 196 3.2 6.4 0.00 0.03 0.00 1019.7
20260902033503 -17 196 4.8 6.4 0.00 0.03 0.00 1019.7
20260902033402 -17 196 4.8 6.4 0.00 0.03 0.00 1019.7
20260902033305 -17 196 3.2 6.4 0.00 0.03 0.00 1019.7
20260902033202 -17 196 3.2 6.4 0.00 0.03 0.00 1019.7
20260902033102 -17 197 3.2 6.4 0.00 0.03 0.00 1019.8
20260902033003 -17 197 3.2 8.0 0.00 0.03 0.00 1019.7
20260902032903 -17 197 3.2 8.0 0.00 0.03 0.00 1019.8
20260902032803 -17 197 3.2 8.0 0.00 0.03 0.00 1019.7
20260902032705 -17 197 3.2 8.0 0.00 0.03 0.00 1019.7
20260902032603 -17 197 3.2 8.0 0.00 0.03 0.00 1019.7
20260902032503 -17 197 4.8 8.0 0.00 0.03 0.00 1019.8
20260902032402 -17 196 3.2 8.0 0.00 0.03 0.00 1019.7
20260902032305 -17 196 3.2 8.0 0.00 0.03 0.00 1019.7
20260902032204 -17 196 4.8 8.0 0.00 0.03 0.00 1019.7
20260902032103 -17 196 4.8 8.0 0.00 0.03 0.00 1019.8
20260902032004 -17 195 3.2 8.0 0.00 0.03 0.00 1019.7
20260902031901 -17 195 4.8 8.0 0.00 0.03 0.00 1019.7
20260902031801 -17 193 4.8 8.0 0.00 0.03 0.00 1019.7
20260902031702 -17 190 4.8 8.0 0.00 0.03 0.00 1019.7
20260902031601 -17 190 4.8 8.0 0.00 0.03 0.00 1019.7
20260902031503 -17 193 4.8 8.0 0.00 0.03 0.00 1019.7
20260902031403 -17 193 4.8 8.0 0.00 0.03 0.00 1019.7
20260902031305 -17 197 4.8 9.7 0.00 0.03 0.00 1019.7
20260902031205 -17 199 3.2 9.7 0.00 0.03 0.00 1019.8
20260902031104 -17 199 3.2 9.7 0.00 0.03 0.00 1019.8
20260902031001 -17 199 4.8 9.7 0.00 0.03 0.00 1019.7
20260902030901 -17 206 4.8 9.7 0.00 0.03 0.00 1019.8
20260902030802 -17 206 4.8 9.7 0.00 0.03 0.00 1019.8
20260902030701 -17 175 4.8 11.3 0.00 0.03 0.00 1019.9
20260902030601 -17 175 4.8 11.3 0.00 0.03 0.00 1019.7
20260902030501 -17 176 4.8 11.3 0.00 0.03 0.00 1019.9
20260902030402 -17 176 4.8 11.3 0.00 0.03 0.00 1019.8
20260902030301 -17 178 3.2 11.3 0.00 0.03 0.00 1019.9
20260902030203 -17 178 3.2 11.3 0.00 0.03 0.00 1019.9
20260902030001 -17 178 4.8 11.3 0.00 0.03 0.00 1019.8
20260902025902 -17 178 4.8 11.3 0.00 0.03 0.00 1019.8
20260902025801 -17 175 4.8 11.3 0.00 0.03 0.00 1019.9
20260902025701 -17 185 4.8 8.0 0.00 0.03 0.00 1019.9
20260902025602 -17 185 4.8 8.0 0.00 0.03 0.00 1019.9
20260902025502 -17 185 4.8 8.0 0.00 0.03 0.00 1019.9
20260902025402 -17 185 4.8 8.0 0.00 0.03 0.00 1019.9
20260902025306 -17 182 4.8 11.3 0.00 0.03 0.00 1019.9
20260902025203 -17 182 4.8 11.3 0.00 0.03 0.00 1019.9
20260902025058 -17 183 4.8 11.3 0.00 0.03 0.00 1019.9
20260902024956 -17 182 6.4 11.3 0.00 0.03 0.00 1020.0
20260902024853 -17 173 4.8 11.3 0.00 0.03 0.00 1020.0
20260902024750 -17 173 3.2 11.3 0.00 0.03 0.00 1020.1
20260902024652 -17 173 4.8 11.3 0.00 0.03 0.00 1020.0
20260902024551 -17 171 6.4 11.3 0.00 0.03 0.00 1020.0
20260902024450 -17 169 6.4 11.3 0.00 0.03 0.00 1020.0
20260902024349 -17 169 6.4 11.3 0.00 0.03 0.00 1020.0
20260902024246 -17 161 4.8 9.7 0.00 0.03 0.00 1020.0
20260902024145 -17 178 4.8 9.7 0.00 0.03 0.00 1020.0
20260902024042 -17 176 6.4 9.7 0.00 0.03 0.00 1020.0
20260902023943 -17 178 4.8 9.7 0.00 0.03 0.00 1020.0
20260902023842 -17 178 4.8 9.7 0.00 0.03 0.00 1020.0
20260902023741 -17 178 4.8 9.7 0.00 0.03 0.00 1020.1
20260902023641 -17 178 4.8 9.7 0.00 0.03 0.00 1020.1
20260902023542 -17 178 4.8 9.7 0.00 0.03 0.00 1020.1
20260902023440 -17 178 6.4 9.7 0.00 0.03 0.00 1020.1
20260902023337 -17 186 4.8 9.7 0.00 0.03 0.00 1020.1
20260902023234 -17 185 4.8 9.7 0.00 0.03 0.00 1020.1
20260902023134 -17 185 4.8 9.7 0.00 0.03 0.00 1020.1
20260902023030 -17 173 4.8 9.7 0.00 0.03 0.00 1020.1
20260902022928 -17 172 4.8 9.7 0.00 0.03 0.00 1020.1
20260902022828 -17 172 3.2 9.7 0.00 0.03 0.00 1020.1
20260902022727 -17 172 3.2 9.7 0.00 0.03 0.00 1020.1
20260902022627 -17 171 3.2 9.7 0.00 0.03 0.00 1020.0
20260902022526 -17 171 3.2 9.7 0.00 0.03 0.00 1020.1
20260902022423 -17 173 3.2 9.7 0.00 0.03 0.00 1020.1
20260902022323 -17 173 4.8 9.7 0.00 0.03 0.00 1020.1
20260902022225 -17 173 4.8 9.7 0.00 0.03 0.00 1020.2
20260902022122 -17 173 4.8 9.7 0.00 0.03 0.00 1020.2
20260902022022 -17 182 4.8 8.0 0.00 0.03 0.00 1020.3
20260902021919 -17 182 4.8 8.0 0.00 0.03 0.00 1020.2
20260902021818 -17 179 4.8 8.0 0.00 0.03 0.00 1020.2
20260902021716 -17 178 4.8 6.4 0.00 0.03 0.00 1020.1
20260902021616 -17 178 4.8 6.4 0.00 0.03 0.00 1020.1
20260902021516 -17 178 4.8 6.4 0.00 0.03 0.00 1020.2
20260902021415 -17 178 3.2 6.4 0.00 0.03 0.00 1020.2
20260902021314 -17 176 3.2 6.4 0.00 0.03 0.00 1020.1
20260902021209 -17 176 4.8 6.4 0.00 0.03 0.00 1020.2
20260902021109 -17 175 4.8 6.4 0.00 0.03 0.00 1020.2
20260902021009 -17 175 4.8 6.4 0.00 0.03 0.00 1020.2
20260902020907 -17 173 3.2 8.0 0.00 0.03 0.00 1020.2
20260902020809 -17 172 3.2 8.0 0.00 0.03 0.00 1020.2
20260902020704 -17 171 3.2 8.0 0.00 0.03 0.00 1020.3
20260902020606 -17 171 3.2 8.0 0.00 0.03 0.00 1020.2
20260902020506 15 171 3.2 8.0 0.00 0.03 0.00 72 1020.2
20260902020405 15 171 4.8 8.0 0.00 0.03 0.00 72 1020.2
20260902020303 15 171 4.8 8.0 0.00 0.03 0.00 72 1020.2
20260902020202 15 171 4.8 8.0 0.00 0.03 0.00 72 1020.2
20260902020003 15 171 6.4 8.0 0.00 0.03 0.00 72 1020.2
20260902015902 15 183 4.8 8.0 0.00 0.03 0.00 72 1020.1
20260902015802 15 183 3.2 9.7 0.00 0.03 0.00 72 1020.1
20260902015702 15 183 4.8 9.7 0.00 0.03 0.00 72 1020.1
20260902015604 15 183 4.8 9.7 0.00 0.03 0.00 72 1020.2
20260902015505 -17 186 6.4 9.7 0.00 0.03 0.00 1020.1
20260902015404 -17 188 4.8 9.7 0.00 0.03 0.00 1020.2
20260902015305 -17 188 4.8 9.7 0.00 0.03 0.00 1020.2
20260902015202 -17 188 4.8 9.7 0.00 0.03 0.00 1020.2
20260902015102 -17 188 4.8 9.7 0.00 0.03 0.00 1020.2
20260902015005 -17 188 6.4 9.7 0.00 0.03 0.00 1020.2
20260902014904 -17 190 6.4 9.7 0.00 0.03 0.00 1020.1
20260902014802 -17 186 6.4 9.7 0.00 0.03 0.00 1020.1
20260902014702 -17 197 4.8 9.7 0.00 0.03 0.00 1020.1
20260902014603 -17 186 4.8 9.7 0.00 0.03 0.00 1020.1
20260902014502 -17 186 4.8 9.7 0.00 0.03 0.00 1020.1
20260902014403 -17 185 4.8 9.7 0.00 0.03 0.00 1020.1
20260902014303 -17 183 4.8 9.7 0.00 0.03 0.00 1020.2
20260902014204 -17 176 6.4 9.7 0.00 0.03 0.00 1020.1
20260902014102 -17 175 6.4 9.7 0.00 0.03 0.00 1020.0
20260902014002 -17 159 6.4 9.7 0.00 0.03 0.00 1020.2
20260902013903 -17 175 3.2 9.7 0.00 0.03 0.00 1020.2
20260902013803 -17 171 4.8 9.7 0.00 0.03 0.00 1020.2
20260902013701 -17 171 4.8 9.7 0.00 0.03 0.00 1020.2
20260902013603 -17 171 4.8 9.7 0.00 0.03 0.00 1020.2
20260902013504 -17 171 4.8 9.7 0.00 0.03 0.00 1020.1
20260902013404 -17 171 6.4 9.7 0.00 0.03 0.00 1020.1
20260902013304 -17 171 6.4 9.7 0.00 0.03 0.00 1020.1
20260902013203 -17 173 6.4 9.7 0.00 0.03 0.00 1020.1
20260902013102 -17 173 6.4 9.7 0.00 0.03 0.00 1020.1
20260902013001 -17 173 6.4 9.7 0.00 0.03 0.00 1020.1
20260902012902 -17 176 4.8 9.7 0.00 0.03 0.00 1020.1
20260902012803 -17 176 6.4 9.7 0.00 0.03 0.00 1020.1
20260902012702 -17 178 6.4 9.7 0.00 0.03 0.00 1020.1
20260902012605 -17 179 6.4 9.7 0.00 0.03 0.00 1020.2
20260902012503 -17 179 6.4 9.7 0.00 0.03 0.00 1020.2
20260902012402 -17 171 6.4 9.7 0.00 0.03 0.00 1020.2
20260902012308 -17 172 4.8 8.0 0.00 0.03 0.00 1020.1
20260902012203 -17 172 4.8 8.0 0.00 0.03 0.00 1020.2
20260902012105 -17 173 4.8 8.0 0.00 0.03 0.00 1020.1
20260902012003 -17 173 4.8 8.0 0.00 0.03 0.00 1020.3
20260902011901 -17 173 4.8 8.0 0.00 0.03 0.00 1020.3
20260902011801 -17 172 4.8 8.0 0.00 0.03 0.00 1020.3
20260902011701 -17 172 4.8 8.0 0.00 0.03 0.00 1020.2
20260902011601 -17 172 6.4 8.0 0.00 0.03 0.00 1020.2
20260902011504 -17 172 4.8 8.0 0.00 0.03 0.00 1020.2
20260902011402 -17 172 4.8 8.0 0.00 0.03 0.00 1020.2
20260902011301 -17 172 4.8 8.0 0.00 0.03 0.00 1020.2
20260902011201 -17 172 4.8 8.0 0.00 0.03 0.00 1020.2
20260902011101 -17 172 4.8 8.0 0.00 0.03 0.00 1020.2
20260902011001 -17 172 4.8 8.0 0.00 0.03 0.00 1020.2
20260902010901 -17 172 4.8 8.0 0.00 0.03 0.00 1020.2
20260902010801 -17 172 3.2 8.0 0.00 0.03 0.00 1020.3
20260902010703 -17 172 3.2 8.0 0.00 0.03 0.00 1020.2
20260902010602 -17 172 4.8 8.0 0.00 0.03 0.00 1020.3
20260902010501 -17 172 4.8 8.0 0.00 0.03 0.00 1020.2
20260902010403 -17 172 4.8 8.0 0.00 0.03 0.00 1020.2
20260902010300 -17 172 3.2 9.7 0.00 0.03 0.00 1020.3
20260902010202 -17 172 3.2 9.7 0.00 0.03 0.00 1020.3
20260902010101 -17 172 4.8 9.7 0.00 0.03 0.00 1020.3
20260902010001 -17 171 6.4 9.7 0.00 0.05 0.00 1020.3
20260902005901 -17 172 3.2 9.7 0.00 0.05 0.00 1020.4
20260902005800 -17 175 3.2 9.7 0.00 0.05 0.00 1020.3
20260902005701 -17 175 3.2 9.7 0.00 0.05 0.00 1020.3
20260902005603 -17 175 3.2 9.7 0.00 0.10 0.00 1020.4
20260902005501 -17 175 4.8 9.7 0.00 0.18 0.00 1020.3
20260902005401 -17 175 6.4 9.7 0.00 0.23 0.00 1020.3
20260902005301 -17 175 4.8 8.0 0.00 0.36 0.00 1020.3
20260902005201 -17 168 4.8 9.7 0.00 0.64 0.00 1020.4
20260902005101 -17 165 4.8 9.7 0.00 0.64 0.00 1020.4
20260902005004 -17 164 3.2 9.7 0.00 0.64 0.00 1020.4
20260902004901 -17 164 3.2 9.7 0.00 0.64 0.00 1020.4
20260902004802 -17 164 4.8 9.7 0.00 0.64 0.00 1020.3
20260902004702 -17 161 4.8 9.7 0.00 0.64 0.00 1020.3
20260902004602 -17 151 4.8 9.7 0.00 0.64 0.00 1020.5
20260902004449 -17 151 4.8 9.7 0.00 0.64 0.00 1020.5
20260902004347 -17 149 6.4 9.7 0.00 0.64 0.00 1020.4
20260902004242 -17 149 4.8 9.7 0.00 0.64 0.00 1020.4
20260902004143 -17 183 4.8 9.7 0.00 0.64 0.00 1020.5
20260902004042 -17 183 4.8 9.7 0.00 0.64 0.00 1020.5
20260902003944 -17 183 4.8 9.7 0.00 0.64 0.00 1020.5
20260902003841 -17 185 4.8 9.7 0.00 0.64 0.00 1020.4
20260902003738 -17 185 3.2 9.7 0.00 0.64 0.00 1020.4
20260902003638 -17 185 6.4 9.7 0.00 0.64 0.00 1020.4
20260902003539 -17 183 4.8 9.7 0.00 0.64 0.00 1020.4
20260902003434 -17 188 3.2 9.7 0.00 0.64 0.00 1020.4
20260902003331 -17 188 3.2 9.7 0.00 0.64 0.00 1020.4
20260902003226 -17 188 4.8 9.7 0.00 0.64 0.00 1020.4
20260902003122 -17 188 4.8 9.7 0.00 0.64 0.00 1020.4
20260902003020 -17 189 6.4 9.7 0.00 0.64 0.00 1020.5
20260902002920 -17 190 6.4 8.0 0.00 0.64 0.00 1020.4
20260902002819 -17 200 4.8 8.0 0.00 0.64 0.00 1020.5
20260902002709 -17 189 3.2 8.0 0.00 0.64 0.00 1020.4
20260902002605 -17 188 3.2 8.0 0.00 0.64 0.00 1020.5
20260902002505 -17 188 3.2 8.0 0.00 0.64 0.00 1020.5
20260902002406 -17 188 3.2 8.0 0.00 0.64 0.00 1020.4
20260902002306 -17 188 4.8 8.0 0.00 0.64 0.00 1020.4
20260902002205 -17 188 6.4 9.7 0.00 0.64 0.00 1020.4
20260902002106 -17 175 4.8 9.7 0.00 0.64 0.00 1020.4
20260902002004 -17 175 4.8 9.7 0.00 0.64 0.00 1020.4
20260902001903 -17 175 4.8 9.7 0.00 0.64 0.00 1020.4
20260902001803 -17 173 3.2 9.7 0.00 0.64 0.00 1020.4
20260902001702 -17 173 3.2 9.7 0.00 0.64 0.00 1020.4
20260902001603 -17 173 4.8 9.7 0.00 0.64 0.00 1020.5
20260902001503 -17 173 4.8 9.7 0.00 0.64 0.00 1020.5
20260902001402 -17 172 4.8 9.7 0.00 0.64 0.00 1020.5
20260902001304 -17 172 6.4 9.7 0.00 0.64 0.00 1020.4
20260902001203 -17 172 4.8 9.7 0.00 0.64 0.00 1020.5
20260902001102 -17 173 3.2 8.0 0.00 0.64 0.00 1020.5
20260902001004 -17 172 4.8 8.0 0.00 0.64 0.00 1020.5
20260902000905 -17 171 4.8 8.0 0.00 0.64 0.00 1020.4
20260902000802 -17 178 4.8 8.0 0.00 0.64 0.00 1020.4
20260902000703 -17 178 4.8 8.0 0.00 0.64 0.00 1020.5
20260902000602 -17 178 3.2 8.0 0.00 0.64 0.00 1020.4
20260902000502 -17 178 4.8 8.0 0.00 0.64 0.00 1020.4
20260902000406 -17 178 4.8 8.0 0.00 0.64 0.00 1020.5
20260902000304 -17 175 3.2 8.0 0.00 0.64 0.00 1020.5
20260902000204 -17 175 3.2 8.0 0.00 0.64 0.00 1020.5
20260902000001 -17 175 4.8 9.7 0.00 0.64 0.00 1020.4
20260901235902 -17 175 4.8 9.7 0.00 0.64 0.00 1020.4
20260901235801 -17 175 4.8 9.7 0.00 0.64 0.00 1020.4
20260901235703 -17 175 4.8 9.7 0.00 0.64 0.00 1020.4
20260901235603 -17 175 6.4 9.7 0.00 0.64 0.00 1020.4
20260901235503 -17 178 6.4 9.7 0.00 0.64 0.00 1020.5
20260901235401 -17 178 4.8 9.7 0.00 0.64 0.00 1020.5
20260901235306 -17 178 4.8 9.7 0.00 0.64 0.00 1020.6
20260901235158 -17 178 4.8 9.7 0.00 0.64 0.00 1020.6
20260901235058 -17 176 6.4 9.7 0.00 0.64 0.00 1020.6
20260901234957 -17 183 4.8 8.0 0.00 0.64 0.00 1020.6
20260901234854 -17 185 3.2 8.0 0.00 0.64 0.00 1020.6
20260901234748 -17 183 4.8 8.0 0.00 0.64 0.00 1020.6
20260901234649 -17 183 4.8 8.0 0.00 0.64 0.00 1020.6
20260901234547 -17 185 3.2 6.4 0.00 0.64 0.00 1020.6
20260901234442 -17 185 3.2 6.4 0.00 0.64 0.00 1020.5
20260901234342 -17 185 3.2 6.4 0.00 0.64 0.00 1020.5
20260901234242 -17 185 3.2 6.4 0.00 0.64 0.00 1020.6
20260901234138 -17 185 4.8 9.7 0.00 0.64 0.00 1020.5
20260901234040 -17 185 4.8 9.7 0.00 0.64 0.00 1020.6
20260901233934 -17 186 4.8 9.7 0.00 0.64 0.00 1020.6
20260901233834 -17 176 4.8 9.7 0.00 0.64 0.00 1020.5
20260901233731 -17 176 4.8 9.7 0.00 0.64 0.00 1020.5
20260901233629 -17 173 4.8 9.7 0.00 0.64 0.00 1020.5
20260901233529 -17 173 4.8 9.7 0.00 0.64 0.00 1020.5
20260901233429 -17 173 4.8 9.7 0.00 0.64 0.00 1020.5
20260901233329 -17 173 4.8 9.7 0.00 0.64 0.00 1020.5
20260901233229 -17 171 4.8 9.7 0.00 0.64 0.00 1020.5
20260901233128 -17 161 4.8 9.7 0.00 0.64 0.00 1020.4
20260901233031 -17 161 4.8 9.7 0.00 0.64 0.00 1020.4
20260901232925 -17 169 3.2 9.7 0.00 0.64 0.00 1020.5
20260901232822 -17 169 4.8 9.7 0.00 0.64 0.00 1020.6
20260901232716 -17 169 4.8 9.7 0.00 0.64 0.00 1020.6
20260901232614 -17 168 4.8 9.7 0.00 0.64 0.00 1020.6
20260901232511 -17 169 4.8 9.7 0.00 0.64 0.00 1020.7
20260901232413 -17 166 4.8 9.7 0.00 0.64 0.00 1020.7
20260901232307 -17 169 4.8 9.7 0.00 0.64 0.00 1020.7
20260901232205 -17 169 4.8 9.7 0.00 0.64 0.00 1020.7
20260901232106 -17 169 4.8 9.7 0.00 0.64 0.00 1020.7
20260901232006 -17 168 4.8 9.7 0.00 0.64 0.00 1020.6
20260901231906 -17 168 4.8 9.7 0.00 0.64 0.00 1020.7
20260901231806 -17 162 4.8 8.0 0.00 0.64 0.00 1020.7
20260901231705 -17 162 4.8 8.0 0.00 0.64 0.00 1020.7
20260901231603 -17 131 4.8 8.0 0.00 0.64 0.00 1020.7
20260901231503 -17 186 3.2 8.0 0.00 0.64 0.00 1020.8
20260901231402 -17 186 3.2 8.0 0.00 0.64 0.00 1020.7
20260901231302 -17 186 4.8 8.0 0.00 0.64 0.00 1020.7
20260901231202 -17 185 4.8 8.0 0.00 0.64 0.00 1020.7
20260901231102 -17 186 4.8 8.0 0.00 0.64 0.00 1020.7
20260901231001 -17 186 3.2 8.0 0.00 0.64 0.00 1020.7
20260901230901 -17 186 4.8 8.0 0.00 0.64 0.00 1020.7
20260901230802 -17 186 3.2 8.0 0.00 0.64 0.00 1020.8
20260901230703 -17 188 3.2 8.0 0.00 0.64 0.00 1020.7
20260901230601 -17 188 4.8 8.0 0.00 0.64 0.00 1020.7
20260901230503 -17 189 3.2 8.0 0.00 0.64 0.00 1020.7
20260901230402 -17 189 3.2 8.0 0.00 0.64 0.00 1020.7
20260901230301 -17 190 3.2 8.0 0.00 0.64 0.00 1020.7
20260901230202 -17 190 3.2 8.0 0.00 0.64 0.00 1020.8
20260901230004 -17 189 3.2 8.0 0.00 0.64 0.00 1020.8
20260901225903 -17 189 3.2 8.0 0.00 0.64 0.00 1020.8
20260901225801 -17 189 3.2 8.0 0.00 0.64 0.00 1020.8
20260901225702 -17 188 3.2 8.0 0.00 0.64 0.00 1020.8
20260901225602 -17 186 3.2 8.0 0.00 0.64 0.00 1020.8
20260901225501 -17 186 3.2 8.0 0.00 0.64 0.00 1020.7
20260901225402 -17 186 3.2 8.0 0.00 0.64 0.00 1020.8
20260901225306 -17 186 3.2 8.0 0.00 0.64 0.00 1020.8
20260901225203 -17 186 3.2 8.0 0.00 0.64 0.00 1020.7
20260901225102 -17 186 3.2 8.0 0.00 0.64 0.00 1020.7
20260901225005 -17 188 3.2 8.0 0.00 0.64 0.00 1020.8
20260901224901 -17 188 4.8 8.0 0.00 0.64 0.00 1020.8
20260901224802 -17 188 6.4 8.0 0.00 0.64 0.00 1020.7
20260901224703 -17 188 6.4 8.0 0.00 0.64 0.00 1020.7
20260901224603 -17 192 3.2 6.4 0.00 0.64 0.00 1020.8
20260901224501 -17 192 3.2 8.0 0.00 0.64 0.00 1020.8
20260901224401 -17 190 3.2 8.0 0.00 0.64 0.00 1020.7
20260901224302 -17 190 3.2 8.0 0.00 0.64 0.00 1020.7
20260901224202 -17 192 3.2 8.0 0.00 0.64 0.00 1020.8
20260901224101 -17 190 3.2 8.0 0.00 0.64 0.00 1020.7
20260901224004 -17 190 3.2 8.0 0.00 0.64 0.00 1020.7
20260901223903 -17 190 4.8 8.0 0.00 0.64 0.00 1020.8
20260901223801 -17 190 4.8 8.0 0.00 0.64 0.00 1020.9
20260901223701 -17 195 4.8 8.0 0.00 0.64 0.00 1020.9
20260901223602 -17 195 4.8 8.0 0.00 0.64 0.00 1020.9
20260901223502 -17 196 3.2 8.0 0.00 0.64 0.00 1020.9
20260901223401 -17 196 3.2 8.0 0.00 0.64 0.00 1021.0
20260901223302 -17 196 3.2 8.0 0.00 0.64 0.00 1020.9
20260901223201 -17 197 3.2 8.0 0.00 0.64 0.00 1020.9
20260901223101 -17 197 4.8 9.7 0.00 0.64 0.00 1021.0
20260901223001 -17 197 4.8 9.7 0.00 0.64 0.00 1020.9
20260901222902 -17 197 3.2 9.7 0.00 0.64 0.00 1021.0
20260901222802 -17 197 3.2 9.7 0.00 0.64 0.00 1021.0
20260901222705 -17 197 4.8 9.7 0.00 0.64 0.00 1020.9
20260901222602 -17 197 4.8 9.7 0.00 0.64 0.00 1021.0
20260901222501 -17 197 3.2 9.7 0.00 0.64 0.00 1021.0
20260901222401 -17 197 3.2 9.7 0.00 0.64 0.00 1020.9
20260901222301 -17 197 4.8 9.7 0.00 0.64 0.00 1021.0
20260901222202 -17 197 4.8 9.7 0.00 0.64 0.00 1020.9
20260901222102 -17 199 4.8 8.0 0.00 0.64 0.00 1020.9
20260901222004 -17 200 3.2 8.0 0.00 0.64 0.00 1020.9
20260901221904 -17 202 4.8 8.0 0.00 0.64 0.00 1020.9
20260901221802 -17 200 4.8 8.0 0.00 0.64 0.00 1020.9
20260901221701 -17 202 4.8 8.0 0.00 0.64 0.00 1020.9
20260901221602 -17 203 4.8 8.0 0.00 0.64 0.00 1020.9
20260901221501 -17 219 3.2 8.0 0.00 0.64 0.00 1020.9
20260901221402 -17 219 3.2 8.0 0.00 0.64 0.00 1020.9
20260901221301 -17 220 3.2 8.0 0.00 0.64 0.00 1020.9
20260901221205 -17 220 3.2 8.0 0.00 0.64 0.00 1020.9
20260901221104 -17 224 3.2 4.8 0.00 0.64 0.00 1020.9
20260901221001 -17 224 3.2 4.8 0.00 0.64 0.00 1020.9
20260901220901 -17 226 3.2 4.8 0.00 0.64 0.00 1021.0
20260901220802 -17 226 3.2 4.8 0.00 0.64 0.00 1021.0
20260901220701 -17 226 3.2 4.8 0.00 0.64 0.00 1020.9
20260901220602 -17 226 3.2 4.8 0.00 0.64 0.00 1020.9
20260901220505 -17 226 1.6 4.8 0.00 0.64 0.00 1021.0
20260901220403 -17 226 1.6 6.4 0.00 0.64 0.00 1020.9
20260901220304 -17 226 1.6 6.4 0.00 0.64 0.00 1021.0
20260901220201 -17 226 1.6 6.4 0.00 0.64 0.00 1020.9
20260901220101 -17 226 1.6 6.4 0.00 0.64 0.00 1021.0
20260901220001 -17 226 1.6 6.4 0.00 0.64 0.64 1021.0
20260901215901 -17 226 1.6 6.4 0.00 0.64 0.64 1020.9
20260901215759 -17 226 1.6 6.4 0.00 0.64 0.64 1020.9
20260901215659 -17 226 3.2 6.4 0.00 0.64 0.64 1020.9
20260901215559 -17 226 3.2 6.4 0.00 0.64 0.64 1020.9
20260901215453 -17 226 3.2 6.4 0.00 0.64 0.64 1021.0
20260901215353 -17 226 3.2 6.4 0.00 0.64 0.64 1021.0
20260901215255 -17 226 3.2 6.4 0.00 0.64 0.64 1021.0
20260901215152 -17 226 3.2 6.4 0.00 0.64 0.64 1020.9
20260901215052 -17 226 3.2 6.4 0.00 0.64 0.64 1021.0
20260901214951 -17 226 3.2 6.4 0.00 0.64 0.64 1020.9
20260901214847 -17 226 3.2 6.4 0.00 0.64 0.64 1020.9
20260901214745 -17 226 3.2 6.4 0.00 0.64 0.64 1020.9
20260901214645 -17 226 1.6 6.4 0.00 0.64 0.64 1020.9
20260901214545 -17 227 3.2 6.4 0.00 0.64 0.64 1020.9
20260901214442 -17 227 3.2 6.4 0.00 0.64 0.64 1020.9
20260901214341 -17 227 3.2 6.4 0.00 0.64 0.64 1020.9
20260901214238 -17 227 3.2 6.4 0.00 0.64 0.64 1020.9
20260901214140 -17 227 3.2 6.4 0.00 0.64 0.64 1021.0
20260901214039 -17 227 3.2 6.4 0.00 0.64 0.64 1020.9
20260901213937 -17 227 3.2 6.4 0.00 0.64 0.64 1020.9
20260901213837 -17 227 3.2 6.4 0.00 0.64 0.64 1020.9
20260901213733 -17 231 3.2 4.8 0.00 0.64 0.64 1020.9
20260901213630 -17 231 3.2 4.8 0.00 0.64 0.64 1020.9
20260901213529 -17 231 3.2 6.4 0.00 0.64 0.64 1020.8
20260901213429 -17 231 3.2 6.4 0.00 0.64 0.64 1020.8
20260901213329 -17 231 1.6 6.4 0.00 0.64 0.64 1020.8
20260901213229 -17 231 3.2 6.4 0.00 0.64 0.64 1020.8
20260901213121 -17 231 3.2 6.4 0.00 0.64 0.64 1020.8
20260901213018 -17 231 3.2 6.4 0.00 0.64 0.64 1020.9
20260901212920 -17 233 3.2 6.4 0.00 0.64 0.64 1020.9
20260901212814 -17 233 3.2 6.4 0.00 0.64 0.64 1020.9
20260901212709 -17 233 3.2 6.4 0.00 0.64 0.64 1020.8
20260901212604 -17 233 3.2 6.4 0.00 0.64 0.64 1020.9
20260901212505 -17 233 3.2 6.4 0.00 0.64 0.64 1020.9
20260901212404 -17 233 3.2 6.4 0.00 0.64 0.64 1020.9
20260901212306 -17 233 3.2 6.4 0.00 0.64 0.64 1020.9
20260901212202 -17 234 3.2 6.4 0.00 0.64 0.64 1020.9
20260901212102 -17 234 3.2 6.4 0.00 0.64 0.64 1020.8
20260901212004 -17 234 3.2 6.4 0.00 0.64 0.64 1020.8
20260901211903 -17 234 3.2 6.4 0.00 0.64 0.64 1020.8
20260901211803 -17 234 3.2 6.4 0.00 0.64 0.64 1020.9
20260901211703 -17 234 3.2 6.4 0.00 0.64 0.64 1020.9
20260901211604 -17 234 3.2 6.4 0.00 0.64 0.64 1021.0
20260901211503 -17 234 3.2 6.4 0.00 0.64 0.64 1021.0
20260901211402 -17 234 3.2 6.4 0.00 0.64 0.64 1020.9
20260901211302 -17 234 1.6 4.8 0.00 0.64 0.64 1020.9
20260901211202 -17 234 1.6 4.8 0.00 0.64 0.64 1020.9
20260901211102 -17 234 3.2 4.8 0.00 0.64 0.64 1020.9
20260901211002 -17 234 1.6 8.0 0.00 0.64 0.64 1020.8
20260901210905 -17 234 1.6 8.0 0.00 0.64 0.64 1020.8
20260901210802 -17 234 3.2 8.0 0.00 0.64 0.64 1020.8
20260901210702 -17 234 3.2 8.0 0.00 0.64 0.64 1020.9
20260901210602 -17 234 3.2 8.0 0.00 0.64 0.64 1020.9
20260901210502 -17 234 3.2 8.0 0.00 0.64 0.64 1020.9
20260901210404 -17 234 3.2 8.0 0.00 0.64 0.64 1020.9
20260901210306 -17 234 3.2 8.0 0.00 0.64 0.64 1020.9
20260901210202 -17 234 3.2 8.0 0.00 0.64 0.64 1020.9
20260901210003 -17 235 3.2 6.4 0.00 0.64 0.64 1020.8
20260901205903 -17 235 4.8 6.4 0.00 0.64 0.64 1020.9
20260901205804 -17 237 3.2 6.4 0.00 0.64 0.64 1020.9
20260901205702 -17 237 3.2 6.4 0.00 0.64 0.64 1020.9
20260901205603 -17 237 1.6 6.4 0.00 0.64 0.64 1020.9
20260901205504 -17 237 3.2 6.4 0.00 0.64 0.64 1020.9
20260901205402 -17 237 3.2 6.4 0.00 0.64 0.64 1020.9
20260901205306 -17 237 3.2 6.4 0.00 0.64 0.64 1020.9
20260901205204 -17 237 3.2 6.4 0.00 0.64 0.64 1021.0
20260901205104 -17 237 3.2 6.4 0.00 0.64 0.64 1020.9
20260901205004 -17 237 3.2 6.4 0.00 0.64 0.64 1021.0
20260901204903 -17 237 3.2 6.4 0.00 0.64 0.64 1021.0
20260901204803 -17 237 3.2 6.4 0.00 0.64 0.64 1020.9
20260901204703 -17 237 3.2 4.8 0.00 0.64 0.64 1021.0
20260901204602 -17 237 3.2 4.8 0.00 0.64 0.64 1021.0
20260901204505 -17 237 1.6 4.8 0.00 0.64 0.64 1021.0
20260901204403 -17 237 1.6 3.2 0.00 0.64 0.64 1021.1
20260901204305 -17 237 1.6 4.8 0.00 0.64 0.64 1021.1
20260901204203 -17 237 0.0 4.8 0.00 0.64 0.64 1021.1
20260901204103 -17 237 0.0 4.8 0.00 0.64 0.64 1021.1
20260901204004 -17 237 1.6 4.8 0.00 0.64 0.64 1021.1
20260901203903 -17 237 1.6 4.8 0.00 0.64 0.64 1021.1
20260901203804 -17 237 1.6 4.8 0.00 0.64 0.64 1021.1
20260901203704 -17 237 1.6 4.8 0.00 0.64 0.64 1021.2
20260901203603 -17 237 0.0 6.4 0.00 0.64 0.64 1021.1
20260901203503 -17 237 1.6 6.4 0.00 0.64 0.64 1021.1
20260901203405 -17 237 1.6 6.4 0.00 0.64 0.64 1021.2
20260901203306 -17 237 0.0 6.4 0.00 0.64 0.64 1021.2
20260901203204 -17 237 0.0 6.4 0.00 0.64 0.64 1021.2
20260901203102 -17 237 1.6 6.4 0.00 0.64 0.64 1021.2
20260901203002 -17 237 1.6 6.4 0.00 0.64 0.64 1021.2
20260901202903 16 237 3.2 6.4 0.00 0.64 0.64 72 1021.2
20260901202802 16 237 3.2 6.4 0.00 0.64 0.64 72 1021.2
20260901202702 16 237 1.6 6.4 0.00 0.64 0.64 72 1021.2
20260901202602 16 237 1.6 4.8 0.00 0.64 0.64 72 1021.3
20260901202503 16 237 1.6 4.8 0.00 0.64 0.64 72 1021.3
20260901202404 16 237 1.6 4.8 0.00 0.64 0.64 72 1021.3
20260901202306 16 237 1.6 4.8 0.00 0.64 0.64 72 1021.3
20260901202204 16 237 1.6 4.8 0.00 0.64 0.64 72 1021.4
20260901202106 16 237 1.6 4.8 0.00 0.64 0.64 72 1021.3
20260901202005 16 237 1.6 4.8 0.00 0.64 0.64 72 1021.4
20260901201903 -17 237 1.6 4.8 0.00 0.64 0.64 1021.4
20260901201801 -17 238 1.6 4.8 0.00 0.64 0.64 1021.3
20260901201703 -17 238 1.6 4.8 0.00 0.64 0.64 1021.3
20260901201602 -17 238 1.6 4.8 0.00 0.64 0.64 1021.3
20260901201507 -17 238 1.6 4.8 0.00 0.64 0.64 1021.3
20260901201402 -17 238 1.6 4.8 0.00 0.64 0.64 1021.3
20260901201302 -17 238 0.0 4.8 0.00 0.64 0.64 1021.3
20260901201202 -17 238 0.0 4.8 0.00 0.64 0.64 1021.3
20260901201102 -17 238 1.6 4.8 0.00 0.64 0.64 1021.3
20260901201002 -17 238 1.6 4.8 0.00 0.64 0.64 1021.3
20260901200903 -17 238 1.6 4.8 0.00 0.64 0.64 1021.3
20260901200802 -17 238 1.6 4.8 0.00 0.64 0.64 1021.3
20260901200702 -17 238 1.6 4.8 0.00 0.64 0.64 1021.3
20260901200604 -17 238 1.6 4.8 0.00 0.64 0.64 1021.4
20260901200504 -17 238 1.6 4.8 0.00 0.64 0.64 1021.3
20260901200405 -17 238 1.6 4.8 0.00 0.64 0.64 1021.4
20260901200302 -17 238 3.2 6.4 0.00 0.64 0.64 1021.4
20260901200202 -17 238 3.2 6.4 0.00 0.64 0.64 1021.4
20260901200004 -17 238 1.6 6.4 0.00 0.64 0.64 1021.4
20260901195901 -17 238 1.6 6.4 0.00 0.64 0.64 1021.4
20260901195801 -17 238 1.6 8.0 0.00 0.64 0.64 1021.3
20260901195703 -17 238 3.2 8.0 0.00 0.64 0.64 1021.3
20260901195602 -17 238 3.2 8.0 0.00 0.64 0.64 1021.3
20260901195502 -17 238 3.2 8.0 0.00 0.64 0.64 1021.4
20260901195405 -17 238 3.2 8.0 0.00 0.64 0.64 1021.4
20260901195305 -17 238 1.6 8.0 0.00 0.64 0.64 1021.3
20260901195203 -17 238 1.6 8.0 0.00 0.64 0.64 1021.4
20260901195102 -17 238 1.6 8.0 0.00 0.64 0.64 1021.3
20260901195004 -17 238 1.6 8.0 0.00 0.64 0.64 1021.3
20260901194902 16 238 1.6 8.0 0.00 0.64 0.64 72 1021.3
20260901194803 16 240 1.6 6.4 0.00 0.64 0.64 72 1021.4
20260901194705 16 240 3.2 6.4 0.00 0.64 0.64 72 1021.3
20260901194602 16 240 3.2 6.4 0.00 0.64 0.64 72 1021.3
20260901194503 16 243 3.2 6.4 0.00 0.64 0.64 72 1021.3
20260901194401 16 243 3.2 8.0 0.00 0.64 0.64 72 1021.3
20260901194303 16 243 3.2 8.0 0.00 0.64 0.64 72 1021.3
20260901194202 16 243 1.6 8.0 0.00 0.64 0.64 72 1021.3
20260901194104 16 243 3.2 8.0 0.00 0.64 0.64 72 1021.2
20260901194002 16 243 3.2 8.0 0.00 0.64 0.64 72 1021.2
20260901193902 -17 243 1.6 8.0 0.00 0.64 0.64 1021.2
20260901193803 -17 243 1.6 8.0 0.00 0.64 0.64 1021.3
20260901193702 -17 243 3.2 8.0 0.00 0.64 0.64 1021.1
20260901193601 -17 243 3.2 8.0 0.00 0.64 0.64 1021.1
20260901193501 -17 243 3.2 8.0 0.00 0.64 0.64 1021.1
20260901193404 -17 247 3.2 6.4 0.00 0.64 0.64 1021.1
20260901193304 -17 259 3.2 6.4 0.00 0.64 0.64 1021.1
20260901193203 -17 259 3.2 6.4 0.00 0.64 0.64 1021.1
20260901193104 -17 259 1.6 6.4 0.00 0.64 0.64 1021.1
20260901193003 -17 259 1.6 6.4 0.00 0.64 0.64 1021.1
20260901192903 -17 259 3.2 6.4 0.00 0.64 0.64 1021.1
20260901192802 -17 259 3.2 6.4 0.00 0.64 0.64 1021.1
20260901192703 -17 261 1.6 6.4 0.00 0.64 0.64 1021.1
20260901192603 -17 262 1.6 4.8 0.00 0.64 0.64 1021.1
20260901192504 -17 262 1.6 4.8 0.00 0.64 0.64 1021.1
20260901192405 -17 262 3.2 4.8 0.00 0.64 0.64 1021.1
20260901192306 -17 262 1.6 4.8 0.00 0.64 0.64 1021.1
20260901192203 -17 262 1.6 4.8 0.00 0.64 0.64 1021.1
20260901192103 -17 262 1.6 4.8 0.00 0.64 0.64 1021.0
20260901192004 -17 262 1.6 4.8 0.00 0.64 0.64 1021.2
20260901191903 -17 262 0.0 4.8 0.00 0.64 0.64 1021.1
20260901191802 -17 262 1.6 4.8 0.00 0.64 0.64 1021.1
20260901191703 -17 262 1.6 4.8 0.00 0.64 0.64 1021.1
20260901191602 -17 262 1.6 4.8 0.00 0.64 0.64 1021.1
20260901191505 -17 262 1.6 4.8 0.00 0.64 0.64 1021.1
20260901191404 -17 262 1.6 4.8 0.00 0.64 0.64 1021.0
20260901191304 -17 262 1.6 4.8 0.00 0.64 0.64 1021.1
20260901191206 -17 262 3.2 4.8 0.00 0.64 0.64 1021.1
20260901191104 -17 262 1.6 3.2 0.00 0.64 0.64 1021.0
20260901191003 -17 262 1.6 3.2 0.00 0.64 0.64 1021.0
20260901190903 -17 262 1.6 3.2 0.00 0.64 0.64 1021.0
20260901190802 -17 262 1.6 3.2 0.00 0.64 0.64 1021.0
20260901190702 -17 262 1.6 3.2 0.00 0.64 0.64 1021.0
20260901190604 -17 262 1.6 3.2 0.00 0.64 0.64 1021.1
20260901190504 -17 262 1.6 4.8 0.00 0.64 0.64 1021.0
20260901190403 -17 262 1.6 4.8 0.00 0.64 0.64 1021.0
20260901190302 -17 262 1.6 4.8 0.00 0.64 0.64 1021.0
20260901190202 -17 262 1.6 4.8 0.00 0.64 0.64 1021.0
20260901190004 -17 262 1.6 4.8 0.00 0.64 0.64 1020.9
20260901185902 -17 262 1.6 4.8 0.00 0.64 0.64 1020.9
20260901185806 -17 262 1.6 4.8 0.00 0.64 0.64 1020.9
20260901185703 -17 262 3.2 4.8 0.00 0.64 0.64 1020.9
20260901185605 -17 262 1.6 4.8 0.00 0.64 0.64 1020.8
20260901185505 -17 262 1.6 4.8 0.00 0.64 0.64 1020.8
20260901185403 -17 262 3.2 4.8 0.00 0.64 0.64 1020.8
20260901185305 -17 262 3.2 4.8 0.00 0.64 0.64 1020.7
20260901185204 -17 262 3.2 6.4 0.00 0.64 0.64 1020.7
20260901185101 -17 262 3.2 6.4 0.00 0.64 0.64 1020.7
20260901185006 -17 262 3.2 6.4 0.00 0.64 0.64 1020.8
20260901184902 -17 262 3.2 6.4 0.00 0.64 0.64 1020.8
20260901184802 -17 262 3.2 6.4 0.00 0.64 0.64 1020.7
20260901184704 -17 262 3.2 6.4 0.00 0.64 0.64 1020.8
20260901184604 -17 264 1.6 6.4 0.00 0.64 0.64 1020.8
20260901184504 -17 264 1.6 6.4 0.00 0.64 0.64 1020.8
20260901184404 -17 264 3.2 6.4 0.00 0.64 0.64 1020.9
20260901184305 -17 264 3.2 6.4 0.00 0.64 0.64 1020.9
20260901184202 -17 264 1.6 6.4 0.00 0.64 0.64 1020.9
20260901184102 -17 264 3.2 6.4 0.00 0.64 0.64 1020.9
20260901184003 -17 264 3.2 4.8 0.00 0.64 0.64 1020.8
20260901183902 -17 264 3.2 4.8 0.00 0.64 0.64 1020.8
20260901183802 -17 264 3.2 4.8 0.00 0.64 0.64 1020.8
20260901183702 -17 264 1.6 3.2 0.00 0.64 0.64 1020.8
20260901183602 -17 264 1.6 3.2 0.00 0.64 0.64 1020.8
20260901183502 -17 264 1.6 4.8 0.00 0.64 0.64 1020.9
20260901183402 -17 264 1.6 4.8 0.00 0.64 0.64 1020.8
20260901183305 -17 264 1.6 4.8 0.00 0.64 0.64 1020.8
20260901183202 -17 264 1.6 4.8 0.00 0.64 0.64 1020.8
20260901183102 -17 264 1.6 4.8 0.00 0.64 0.64 1020.9
20260901183002 -17 264 1.6 4.8 0.00 0.64 0.64 1020.7
20260901182902 -17 264 1.6 6.4 0.00 0.64 0.64 1020.7
20260901182803 -17 264 1.6 6.4 0.00 0.64 0.64 1020.6
20260901182703 -17 264 1.6 6.4 0.00 0.64 0.64 1020.6
20260901182603 -17 264 3.2 6.4 0.00 0.64 0.64 1020.7
20260901182504 -17 264 1.6 6.4 0.00 0.64 0.64 1020.7
20260901182404 -17 264 1.6 6.4 0.00 0.64 0.64 1020.7
20260901182305 -17 264 0.0 6.4 0.00 0.64 0.64 1020.8
20260901182204 -17 264 1.6 6.4 0.00 0.64 0.64 1020.8
20260901182102 -17 264 1.6 6.4 0.00 0.64 0.64 1020.8
20260901182004 -17 264 1.6 6.4 0.00 0.64 0.64 1020.8
20260901181902 -17 264 1.6 4.8 0.00 0.64 0.64 1020.8
20260901181802 -17 264 0.0 3.2 0.00 0.64 0.64 1020.8
20260901181702 -17 264 1.6 3.2 0.00 0.64 0.64 1020.8
20260901181604 -17 264 1.6 3.2 0.00 0.64 0.64 1020.8
20260901181503 -17 264 1.6 3.2 0.00 0.64 0.64 1020.8
20260901181403 -17 264 0.0 3.2 0.00 0.64 0.64 1020.8
20260901181302 -17 264 1.6 3.2 0.00 0.64 0.64 1020.8
20260901181203 -17 264 1.6 3.2 0.00 0.64 0.64 1020.8
20260901181103 -17 264 1.6 3.2 0.00 0.64 0.64 1020.8
20260901181006 -17 264 1.6 3.2 0.00 0.64 0.64 1020.8
20260901180902 -17 264 1.6 6.4 0.00 0.64 0.64 1020.8
20260901180802 -17 264 1.6 6.4 0.00 0.64 0.64 1020.8
20260901180702 -17 264 1.6 6.4 0.00 0.64 0.64 1020.8
20260901180602 -17 264 1.6 6.4 0.00 0.64 0.64 1020.8
20260901180506 -17 264 1.6 6.4 0.00 0.64 0.64 1020.8
20260901180403 -17 264 1.6 6.4 0.00 0.64 0.64 1020.8
20260901180304 -17 264 1.6 6.4 0.00 0.64 0.64 1020.7
20260901180204 -17 264 1.6 6.4 0.00 0.64 0.64 1020.8
20260901180002 -17 264 1.6 6.4 0.00 0.64 0.64 1020.8
20260901175901 -17 264 1.6 4.8 0.00 0.64 0.64 1020.8
20260901175802 -17 264 1.6 4.8 0.00 0.64 0.64 1020.9
20260901175701 -17 264 1.6 4.8 0.00 0.64 0.64 1020.9
20260901175603 -17 264 1.6 4.8 0.00 0.64 0.64 1020.9
20260901175505 17 264 1.6 4.8 0.00 0.64 0.64 72 1020.8
20260901175402 17 264 3.2 4.8 0.00 0.64 0.64 72 1020.8
20260901175305 17 264 3.2 4.8 0.00 0.64 0.64 72 1020.9
20260901175201 17 264 3.2 4.8 0.00 0.64 0.64 72 1020.9
20260901175103 17 264 1.6 4.8 0.00 0.64 0.64 72 1021.0
20260901175007 17 264 1.6 6.4 0.00 0.64 0.64 72 1020.9
20260901174903 17 265 1.6 6.4 0.00 0.64 0.64 72 1020.9
20260901174805 17 265 1.6 6.4 0.00 0.64 0.64 72 1020.9
20260901174702 17 265 1.6 6.4 0.00 0.64 0.64 72 1020.9
20260901174602 17 265 1.6 6.4 0.00 0.64 0.64 72 1020.9
20260901174502 -17 265 3.2 6.4 0.00 0.64 0.64 1020.8
20260901174402 -17 265 3.2 8.0 0.00 0.64 0.64 1020.8
20260901174301 -17 265 3.2 8.0 0.00 0.64 0.64 1020.8
20260901174202 -17 265 3.2 8.0 0.00 0.64 0.64 1020.9
20260901174102 -17 265 1.6 8.0 0.00 0.64 0.64 1020.8
20260901174008 -17 265 1.6 8.0 0.00 0.64 0.64 1020.9
20260901173902 -17 265 3.2 8.0 0.00 0.64 0.64 1020.9
20260901173801 -17 265 3.2 8.0 0.00 0.64 0.64 1020.9
20260901173702 -17 265 3.2 8.0 0.00 0.64 0.64 1020.9
20260901173602 -17 266 3.2 8.0 0.00 0.64 0.64 1020.9
20260901173503 -17 266 4.8 8.0 0.00 0.64 0.64 1021.0
20260901173402 -17 266 4.8 8.0 0.00 0.64 0.64 1021.0
20260901173302 -17 266 3.2 8.0 0.00 0.64 0.64 1020.9
20260901173206 -17 266 1.6 8.0 0.00 0.64 0.64 1020.9
20260901173105 -17 266 3.2 8.0 0.00 0.64 0.64 1021.1
20260901173005 -17 266 3.2 8.0 0.00 0.64 0.64 1021.1
20260901172902 -17 271 3.2 8.0 0.00 0.64 0.64 1021.1
20260901172803 -17 271 3.2 8.0 0.00 0.64 0.64 1021.1
20260901172702 -17 271 3.2 8.0 0.00 0.64 0.64 1021.1
20260901172602 -17 271 3.2 8.0 0.00 0.64 0.64 1021.0
20260901172506 18 272 3.2 8.0 0.00 0.64 0.64 72 1021.1
20260901172403 18 271 4.8 8.0 0.00 0.64 0.64 72 1021.1
20260901172304 18 272 4.8 8.0 0.00 0.64 0.64 72 1021.1
20260901172202 18 272 3.2 8.0 0.00 0.64 0.64 72 1021.1
20260901172101 18 272 3.2 11.3 0.00 0.64 0.64 72 1021.1
20260901172006 18 274 3.2 11.3 0.00 0.64 0.64 72 1021.0
20260901171905 18 274 4.8 11.3 0.00 0.64 0.64 72 1021.1
20260901171802 18 250 4.8 11.3 0.00 0.64 0.64 72 1021.1
20260901171702 18 250 4.8 11.3 0.00 0.64 0.64 72 1021.0
20260901171604 18 250 4.8 11.3 0.00 0.64 0.64 72 1021.0
20260901171504 -17 241 4.8 11.3 0.00 0.64 0.64 1021.0
20260901171406 -17 233 3.2 11.3 0.00 0.64 0.64 1021.0
20260901171302 -17 224 4.8 11.3 0.00 0.64 0.64 1021.0
20260901171203 -17 224 4.8 11.3 0.00 0.64 0.64 1021.1
20260901171102 -17 268 3.2 11.3 0.00 0.64 0.64 1021.1
20260901171003 -17 266 4.8 11.3 0.00 0.64 0.64 1021.0
20260901170902 -17 266 6.4 11.3 0.00 0.64 0.64 1021.0
20260901170802 -17 265 6.4 11.3 0.00 0.64 0.64 1021.0
20260901170702 -17 268 3.2 11.3 0.00 0.64 0.64 1021.0
20260901170602 -17 268 4.8 11.3 0.00 0.64 0.64 1021.1
20260901170504 -17 266 3.2 11.3 0.00 0.64 0.64 1021.2
20260901170403 -17 279 3.2 11.3 0.00 0.64 0.64 1021.1
20260901170307 -17 279 4.8 11.3 0.00 0.64 0.64 1021.1
20260901170202 -17 281 4.8 11.3 0.00 0.64 0.64 1021.1
20260901170004 -17 289 6.4 11.3 0.00 0.64 0.64 1021.1
20260901165901 -17 279 4.8 9.7 0.00 0.64 0.64 1021.2
20260901165802 -17 269 4.8 11.3 0.00 0.64 0.64 1021.2
20260901165702 -17 261 6.4 11.3 0.00 0.64 0.64 1021.2
20260901165602 -17 254 4.8 11.3 0.00 0.64 0.64 1021.2
20260901165504 -17 254 3.2 14.5 0.00 0.64 0.64 1021.2
20260901165404 -17 248 4.8 14.5 0.00 0.64 0.64 1021.3
20260901165306 -17 248 4.8 16.1 0.00 0.64 0.64 1021.3
20260901165202 -17 269 4.8 16.1 0.00 0.64 0.64 1021.3
20260901165101 -17 268 6.4 16.1 0.00 0.64 0.64 1021.3
20260901165005 -17 259 6.4 16.1 0.00 0.64 0.64 1021.3
20260901164901 -17 199 6.4 16.1 0.00 0.64 0.64 1021.3
20260901164803 -17 271 4.8 16.1 0.00 0.64 0.64 1021.3
20260901164702 -17 272 6.4 16.1 0.00 0.64 0.64 1021.2
20260901164605 -17 271 6.4 16.1 0.00 0.64 0.64 1021.3
20260901164505 -17 250 6.4 16.1 0.00 0.64 0.64 1021.2
20260901164405 -17 241 6.4 16.1 0.00 0.64 0.64 1021.3
20260901164302 -17 266 6.4 14.5 0.00 0.64 0.64 1021.2
20260901164202 -17 283 4.8 14.5 0.00 0.64 0.64 1021.2
20260901164103 -17 235 3.2 14.5 0.00 0.64 0.64 1021.3
20260901163954 -17 233 3.2 14.5 0.00 0.64 0.64 1021.3
20260901163850 18 235 3.2 14.5 0.00 0.64 0.64 72 1021.3
20260901163750 18 235 4.8 14.5 0.00 0.64 0.64 72 1021.3
20260901163649 18 243 4.8 14.5 0.00 0.64 0.64 72 1021.3
20260901163548 18 286 6.4 14.5 0.00 0.64 0.64 72 1021.2
20260901163449 18 266 6.4 14.5 0.00 0.64 0.64 72 1021.2
20260901163349 18 257 4.8 14.5 0.00 0.64 0.64 72 1021.2
20260901163250 18 275 4.8 14.5 0.00 0.64 0.64 72 1021.2
20260901163148 18 258 6.4 14.5 0.00 0.64 0.64 72 1021.1
20260901163047 18 265 4.8 14.5 0.00 0.64 0.64 72 1021.1
20260901162947 18 271 6.4 14.5 0.00 0.64 0.64 72 1021.2
20260901162841 19 271 6.4 14.5 0.00 0.64 0.64 72 1021.2
20260901162738 19 258 6.4 14.5 0.00 0.64 0.64 72 1021.1
20260901162635 19 272 6.4 14.5 0.00 0.64 0.64 72 1021.1
20260901162536 19 271 6.4 11.3 0.00 0.64 0.64 72 1021.1
20260901162434 19 272 6.4 9.7 0.00 0.64 0.64 72 1021.2
20260901162335 19 283 6.4 16.1 0.00 0.64 0.64 72 1021.2
20260901162234 19 268 6.4 16.1 0.00 0.64 0.64 72 1021.1
20260901162130 19 271 4.8 16.1 0.00 0.64 0.64 72 1021.1
20260901162028 19 261 4.8 16.1 0.00 0.64 0.64 72 1021.2
20260901161927 19 258 6.4 16.1 0.00 0.64 0.64 72 1021.2
20260901161827 19 281 6.4 16.1 0.00 0.64 0.64 72 1021.1
20260901161727 19 266 4.8 16.1 0.00 0.64 0.64 72 1021.2
20260901161627 19 269 4.8 16.1 0.00 0.64 0.64 72 1021.2
20260901161523 19 258 6.4 16.1 0.00 0.64 0.64 72 1021.1
20260901161421 19 255 8.0 16.1 0.00 0.64 0.64 72 1021.2
20260901161323 19 281 6.4 14.5 0.00 0.64 0.64 72 1021.2
20260901161219 19 269 6.4 14.5 0.00 0.64 0.64 71 1021.1
20260901161120 19 275 6.4 14.5 0.00 0.64 0.64 71 1021.1
20260901161018 19 281 6.4 14.5 0.00 0.64 0.64 71 1021.1
20260901160918 19 271 8.0 14.5 0.00 0.64 0.64 71 1021.0
20260901160817 19 274 4.8 14.5 0.00 0.64 0.64 70 1021.0
20260901160712 19 307 4.8 14.5 0.00 0.64 0.64 70 1021.1
20260901160612 19 264 4.8 14.5 0.00 0.64 0.64 70 1021.1
20260901160512 19 206 4.8 14.5 0.00 0.64 0.64 70 1021.1
20260901160411 19 255 8.0 16.1 0.00 0.64 0.64 70 1021.1
20260901160308 19 257 6.4 16.1 0.00 0.64 0.64 70 1021.1
20260901160207 19 259 4.8 16.1 0.00 0.64 0.64 70 1021.1
20260901160106 19 262 6.4 16.1 0.00 0.64 0.64 70 1021.1
20260901160008 19 262 6.4 16.1 0.00 0.64 0.64 70 1021.1
20260901155905 19 247 4.8 16.1 0.00 0.64 0.64 70 1021.1
20260901155802 19 245 6.4 16.1 0.00 0.64 0.64 71 1021.1
20260901155702 19 272 6.4 16.1 0.00 0.64 0.64 71 1021.1
20260901155602 19 261 6.4 17.7 0.00 0.64 0.64 72 1021.1
20260901155504 19 262 6.4 17.7 0.00 0.64 0.64 72 1021.2
20260901155402 19 269 6.4 17.7 0.00 0.64 0.64 71 1021.2
20260901155306 19 271 8.0 17.7 0.00 0.64 0.64 71 1021.1
20260901155201 19 283 6.4 17.7 0.00 0.64 0.64 71 1021.1
20260901155101 19 272 4.8 17.7 0.00 0.64 0.64 70 1021.1
20260901155004 19 244 4.8 17.7 0.00 0.64 0.64 70 1021.1
20260901154903 19 244 6.4 17.7 0.00 0.64 0.64 70 1021.2
20260901154802 19 271 9.7 17.7 0.00 0.64 0.64 70 1021.3
20260901154701 19 271 8.0 17.7 0.00 0.64 0.64 70 1021.1
20260901154603 19 278 4.8 16.1 0.00 0.64 0.64 71 1021.2
20260901154504 19 278 6.4 17.7 0.00 0.64 0.64 71 1021.2
20260901154402 19 227 9.7 17.7 0.00 0.64 0.64 71 1021.2
20260901154302 19 272 6.4 17.7 0.00 0.64 0.64 70 1021.2
20260901154202 19 258 4.8 17.7 0.00 0.64 0.64 70 1021.2
20260901154102 19 257 4.8 17.7 0.00 0.64 0.64 70 1021.2
20260901154001 19 258 6.4 17.7 0.00 0.64 0.64 70 1021.2
20260901153902 19 258 4.8 17.7 0.00 0.64 0.64 70 1021.2
20260901153804 19 265 4.8 17.7 0.00 0.64 0.64 70 1021.2
20260901153702 19 307 6.4 17.7 0.00 0.64 0.64 69 1021.2
20260901153603 19 289 6.4 17.7 0.00 0.64 0.64 70 1021.2
20260901153503 19 262 4.8 16.1 0.00 0.64 0.64 69 1021.1
20260901153401 19 245 4.8 16.1 0.00 0.64 0.64 69 1021.2
20260901153303 19 269 4.8 16.1 0.00 0.64 0.64 69 1021.1
20260901153201 19 259 4.8 16.1 0.00 0.64 0.64 69 1021.1
20260901153101 19 258 4.8 16.1 0.00 0.64 0.64 70 1021.1
20260901153001 19 192 3.2 16.1 0.00 0.64 0.64 70 1021.1
20260901152901 19 193 3.2 16.1 0.00 0.64 0.64 69 1021.1
20260901152801 19 193 6.4 16.1 0.00 0.64 0.64 69 1021.1
20260901152701 19 258 8.0 16.1 0.00 0.64 0.64 69 1021.2
20260901152603 19 264 8.0 16.1 0.00 0.64 0.64 70 1021.1
20260901152503 19 258 6.4 16.1 0.00 0.64 0.64 70 1021.1
20260901152402 19 251 6.4 16.1 0.00 0.64 0.64 70 1021.1
20260901152301 19 278 8.0 16.1 0.00 0.64 0.64 70 1021.0
20260901152202 19 257 6.4 16.1 0.00 0.64 0.64 70 1021.0
20260901152101 19 274 6.4 16.1 0.00 0.64 0.64 70 1021.1
20260901152004 19 279 6.4 16.1 0.00 0.64 0.64 70 1021.1
20260901151903 19 272 6.4 16.1 0.00 0.64 0.64 71 1021.0
20260901151802 20 268 6.4 16.1 0.00 0.64 0.64 71 1021.0
20260901151702 20 269 6.4 16.1 0.00 0.64 0.64 71 1021.1
20260901151602 20 275 6.4 16.1 0.00 0.64 0.64 71 1021.1
20260901151503 20 258 8.0 16.1 0.00 0.64 0.64 71 1021.1
20260901151358 20 265 6.4 16.1 0.00 0.64 0.64 71 1021.1
20260901151258 20 252 4.8 16.1 0.00 0.64 0.64 71 1021.1
20260901151159 20 250 6.4 16.1 0.00 0.64 0.64 71 1021.1
20260901151058 20 258 8.0 16.1 0.00 0.64 0.64 71 1021.0
20260901150956 20 265 8.0 16.1 0.00 0.64 0.64 71 1021.0
20260901150854 20 252 4.8 16.1 0.00 0.64 0.64 71 1021.1
20260901150752 20 258 4.8 16.1 0.00 0.64 0.64 71 1021.1
20260901150651 20 259 4.8 16.1 0.00 0.64 0.64 71 1021.0
20260901150549 20 276 3.2 16.1 0.00 0.64 0.64 71 1020.9
20260901150449 20 283 4.8 16.1 0.00 0.64 0.64 71 1020.9
20260901150350 20 261 8.0 16.1 0.00 0.64 0.64 71 1020.9
20260901150247 20 228 8.0 16.1 0.00 0.64 0.64 71 1020.9
20260901150144 20 197 8.0 16.1 0.00 0.64 0.64 70 1021.0
20260901150040 20 283 8.0 16.1 0.00 0.64 0.64 70 1021.0
20260901145937 20 261 6.4 11.3 0.00 0.64 0.64 70 1020.9
20260901145833 20 276 6.4 11.3 0.00 0.64 0.64 70 1021.0
20260901145733 20 282 4.8 14.5 0.00 0.64 0.64 70 1020.9
20260901145631 20 283 4.8 14.5 0.00 0.64 0.64 70 1020.9
20260901145531 20 285 4.8 14.5 0.00 0.64 0.64 70 1021.0
20260901145430 20 288 6.4 14.5 0.00 0.64 0.64 70 1021.0
20260901145330 20 266 6.4 14.5 0.00 0.64 0.64 70 1021.0
20260901145230 20 298 4.8 14.5 0.00 0.64 0.64 70 1021.0
20260901145129 20 302 3.2 14.5 0.00 0.64 0.64 70 1020.9
20260901145029 -17 254 4.8 14.5 0.00 0.64 0.64 1021.0
20260901144930 -17 251 6.4 14.5 0.00 0.64 0.64 1021.0
20260901144827 -17 251 8.0 14.5 0.00 0.64 0.64 1021.0
20260901144727 -17 231 6.4 11.3 0.00 0.64 0.64 1020.9
20260901144627 -17 293 3.2 11.3 0.00 0.64 0.64 1020.9
20260901144526 -17 295 4.8 14.5 0.00 0.64 0.64 1021.0
20260901144423 -17 295 6.4 14.5 0.00 0.64 0.64 1021.0
20260901144324 -17 243 4.8 14.5 0.00 0.64 0.64 1020.9
20260901144222 -17 235 4.8 14.5 0.00 0.64 0.64 1021.0
20260901144122 -17 213 4.8 14.5 0.00 0.64 0.64 1021.0
20260901144024 -17 185 4.8 14.5 0.00 0.64 0.64 1020.9
20260901143921 -17 262 3.2 17.7 0.00 0.64 0.64 1021.0
20260901143818 -17 262 3.2 17.7 0.00 0.64 0.64 1021.0
20260901143717 -17 264 4.8 17.7 0.00 0.64 0.64 1021.0
20260901143614 -17 264 6.4 17.7 0.00 0.64 0.64 1021.0
20260901143512 -17 276 6.4 17.7 0.00 0.64 0.64 1021.1
20260901143412 -17 268 8.0 17.7 0.00 0.64 0.64 1021.0
20260901143312 -17 295 6.4 17.7 0.00 0.64 0.64 1021.1
20260901143210 -17 274 4.8 17.7 0.00 0.64 0.64 1021.1
20260901143110 -17 276 8.0 17.7 0.00 0.64 0.64 1021.0
20260901143007 -17 261 9.7 17.7 0.00 0.64 0.64 1021.0
20260901142907 -17 266 8.0 16.1 0.00 0.64 0.64 1021.1
20260901142807 20 296 9.7 16.1 0.00 0.64 0.64 70 1021.1
20260901142705 20 271 9.7 16.1 0.00 0.64 0.64 70 1021.1
20260901142605 20 283 6.4 16.1 0.00 0.64 0.64 70 1021.1
20260901142504 20 266 4.8 16.1 0.00 0.64 0.64 70 1021.1
20260901142405 20 245 4.8 16.1 0.00 0.64 0.64 70 1021.1
20260901142306 20 245 8.0 16.1 0.00 0.64 0.64 70 1021.1
20260901142206 20 247 8.0 16.1 0.00 0.64 0.64 70 1021.1
20260901142104 20 276 6.4 16.1 0.00 0.64 0.64 70 1021.1
20260901142004 20 258 6.4 14.5 0.00 0.64 0.64 70 1021.1
20260901141900 20 264 6.4 14.5 0.00 0.64 0.64 70 1021.1
20260901141802 20 264 4.8 14.5 0.00 0.64 0.64 70 1021.1
20260901141702 20 271 3.2 14.5 0.00 0.64 0.64 70 1021.1
20260901141601 20 266 4.8 16.1 0.00 0.64 0.64 70 1021.1
20260901141502 20 264 6.4 16.1 0.00 0.64 0.64 70 1021.1
20260901141402 20 262 9.7 16.1 0.00 0.64 0.64 70 1021.1
20260901141301 20 321 8.0 16.1 0.00 0.64 0.64 70 1021.1
20260901141204 20 255 4.8 16.1 0.00 0.64 0.64 70 1021.1
20260901141103 20 269 3.2 16.1 0.00 0.64 0.64 70 1021.1
20260901141005 20 269 4.8 16.1 0.00 0.64 0.64 70 1021.2
20260901140904 20 269 4.8 16.1 0.00 0.64 0.64 70 1021.1
20260901140804 20 278 8.0 16.1 0.00 0.64 0.64 70 1021.1
20260901140704 20 278 8.0 19.3 0.00 0.64 0.64 70 1021.1
20260901140601 20 255 6.4 19.3 0.00 0.64 0.64 70 1021.1
20260901140503 20 302 6.4 19.3 0.00 0.64 0.64 70 1021.2
20260901140401 20 283 6.4 19.3 0.00 0.64 0.64 70 1021.2
20260901140302 20 285 6.4 19.3 0.00 0.64 0.64 70 1021.2
20260901140201 -17 298 4.8 19.3 0.00 0.64 0.64 1021.1
20260901140002 -17 197 4.8 19.3 0.00 0.64 0.64 1021.2
20260901135901 -17 303 6.4 19.3 0.00 0.64 0.64 1021.1
20260901135804 -17 274 9.7 19.3 0.00 0.64 0.64 1021.1
20260901135700 -17 279 9.7 19.3 0.00 0.64 0.64 1021.2
20260901135559 -17 279 9.7 16.1 0.00 0.64 0.64 1021.1
20260901135457 -17 266 8.0 16.1 0.00 0.64 0.64 1021.1
20260901135356 -17 251 6.4 16.1 0.00 0.64 0.64 1021.1
20260901135256 -17 266 6.4 16.1 0.00 0.64 0.64 1021.1
20260901135153 -17 254 4.8 16.1 0.00 0.64 0.64 1021.1
20260901135050 -17 247 3.2 16.1 0.00 0.64 0.64 1021.1
20260901134950 -17 203 6.4 16.1 0.00 0.64 0.64 1021.1
20260901134850 -17 278 6.4 16.1 0.00 0.64 0.64 1021.1
20260901134749 -17 279 8.0 16.1 0.00 0.64 0.64 1021.1
20260901134648 -17 279 9.7 16.1 0.00 0.64 0.64 1021.1
20260901134546 -17 296 8.0 16.1 0.00 0.64 0.64 1021.1
20260901134442 -17 274 6.4 16.1 0.00 0.64 0.64 1021.0
20260901134342 -17 289 6.4 16.1 0.00 0.64 0.64 1021.1
20260901134242 -17 266 6.4 16.1 0.00 0.64 0.64 1021.1
20260901134142 -17 257 6.4 16.1 0.00 0.64 0.64 1021.1
20260901134043 -17 243 6.4 16.1 0.00 0.64 0.64 1021.1
20260901133940 -17 258 4.8 16.1 0.00 0.64 0.64 1021.1
20260901133837 -17 262 4.8 16.1 0.00 0.64 0.64 1021.1
20260901133736 -17 262 8.0 17.7 0.00 0.64 0.64 1021.1
20260901133635 20 262 8.0 17.7 0.00 0.64 0.64 70 1021.1
20260901133534 20 276 4.8 17.7 0.00 0.64 0.64 70 1021.2
20260901133433 20 278 8.0 17.7 0.00 0.64 0.64 70 1021.1
20260901133334 20 278 6.4 17.7 0.00 0.64 0.64 70 1021.1
20260901133233 20 265 4.8 17.7 0.00 0.64 0.64 70 1021.2
20260901133133 20 265 4.8 17.7 0.00 0.64 0.64 70 1021.2
20260901133032 20 265 6.4 17.7 0.00 0.64 0.64 70 1021.1
20260901132934 20 262 9.7 17.7 0.00 0.64 0.64 70 1021.2
20260901132832 20 261 9.7 17.7 0.00 0.64 0.64 70 1021.2
20260901132730 20 269 4.8 16.1 0.00 0.64 0.64 70 1021.2
20260901132630 20 257 3.2 16.1 0.00 0.64 0.64 70 1021.2
20260901132528 20 257 3.2 16.1 0.00 0.64 0.64 70 1021.2
20260901132428 20 257 3.2 16.1 0.00 0.64 0.64 70 1021.2
20260901132327 20 262 6.4 16.1 0.00 0.64 0.64 70 1021.2
20260901132226 20 264 6.4 16.1 0.00 0.64 0.64 70 1021.1
20260901132126 20 281 6.4 16.1 0.00 0.64 0.64 70 1021.2
20260901132023 20 283 8.0 16.1 0.00 0.64 0.64 70 1021.3
20260901131923 20 276 8.0 16.1 0.00 0.64 0.64 70 1021.2
20260901131822 20 289 6.4 16.1 0.00 0.64 0.64 70 1021.2
20260901131722 20 285 6.4 16.1 0.00 0.64 0.64 70 1021.3
20260901131622 20 275 6.4 16.1 0.00 0.64 0.64 70 1021.2
20260901131519 20 268 4.8 16.1 0.00 0.64 0.64 70 1021.2
20260901131416 20 269 6.4 16.1 0.00 0.64 0.64 70 1021.2
20260901131313 20 264 6.4 16.1 0.00 0.64 0.64 70 1021.2
20260901131213 20 261 8.0 16.1 0.00 0.64 0.64 70 1021.2
20260901131113 20 257 6.4 16.1 0.00 0.64 0.64 70 1021.1
20260901131012 20 261 3.2 14.5 0.00 0.64 0.64 70 1021.3
20260901130913 20 247 3.2 14.5 0.00 0.64 0.64 70 1021.2
20260901130810 20 237 4.8 14.5 0.00 0.64 0.64 70 1021.2
20260901130707 20 268 4.8 14.5 0.00 0.64 0.64 70 1021.3
20260901130605 20 286 6.4 11.3 0.00 0.64 0.64 70 1021.2
20260901130506 20 274 6.4 11.3 0.00 0.64 0.64 70 1021.3
20260901130404 -17 266 4.8 11.3 0.00 0.64 0.64 1021.3
20260901130304 -17 258 3.2 11.3 0.00 0.64 0.64 1021.3
20260901130203 -17 258 4.8 11.3 0.00 0.64 0.64 1021.3
20260901130103 -17 261 4.8 11.3 0.00 0.64 0.64 1021.3
20260901130003 -17 268 4.8 11.3 0.00 0.64 0.64 1021.3
20260901125901 -17 250 6.4 11.3 0.00 0.64 0.64 1021.3
20260901125802 -17 207 6.4 11.3 0.00 0.64 0.64 1021.2
20260901125703 -17 265 3.2 11.3 0.00 0.64 0.64 1021.3
20260901125601 -17 266 3.2 14.5 0.00 0.64 0.64 1021.2
20260901125502 -17 268 3.2 14.5 0.00 0.64 0.64 1021.3
20260901125403 -17 272 3.2 16.1 0.00 0.64 0.64 1021.3
20260901125307 -17 272 3.2 16.1 0.00 0.64 0.64 1021.2
20260901125202 -17 275 4.8 16.1 0.00 0.64 0.64 1021.2
20260901125101 -17 274 4.8 16.1 0.00 0.64 0.64 1021.2
20260901125004 -17 262 4.8 16.1 0.00 0.64 0.64 1021.4
20260901124901 -17 262 8.0 16.1 0.00 0.64 0.64 1021.3
20260901124802 -17 290 8.0 16.1 0.00 0.64 0.64 1021.3
20260901124703 -17 320 8.0 16.1 0.00 0.64 0.64 1021.3
20260901124602 -17 292 8.0 16.1 0.00 0.64 0.64 1021.3
20260901124501 -17 286 8.0 16.1 0.00 0.64 0.64 1021.3
20260901124402 -17 303 8.0 16.1 0.00 0.64 0.64 1021.3
20260901124304 -17 292 8.0 16.1 0.00 0.64 0.64 1021.2
20260901124202 -17 279 8.0 16.1 0.00 0.64 0.64 1021.3
20260901124102 -17 257 6.4 16.1 0.00 0.64 0.64 1021.3
20260901124001 -17 286 3.2 16.1 0.00 0.64 0.64 1021.3
20260901123902 -17 266 3.2 16.1 0.00 0.64 0.64 1021.3
20260901123801 -17 268 4.8 16.1 0.00 0.64 0.64 1021.3
20260901123701 -17 266 6.4 16.1 0.00 0.64 0.64 1021.3
20260901123602 -17 266 6.4 16.1 0.00 0.64 0.64 1021.3
20260901123503 -17 269 4.8 16.1 0.00 0.64 0.64 1021.3
20260901123403 -17 281 4.8 16.1 0.00 0.64 0.64 1021.3
20260901123303 -17 292 6.4 16.1 0.00 0.64 0.64 1021.3
20260901123202 -17 272 6.4 16.1 0.00 0.64 0.64 1021.3
20260901123102 -17 275 8.0 16.1 0.00 0.64 0.64 1021.2
20260901123001 -17 269 6.4 16.1 0.00 0.64 0.64 1021.3
20260901122902 -17 278 6.4 16.1 0.00 0.64 0.64 1021.3
20260901122802 -17 279 8.0 17.7 0.00 0.64 0.64 1021.4
20260901122701 -17 266 8.0 17.7 0.00 0.64 0.64 1021.3
20260901122601 -17 262 9.7 17.7 0.00 0.64 0.64 1021.2
20260901122502 -17 298 6.4 17.7 0.00 0.64 0.64 1021.3
20260901122402 -17 279 3.2 17.7 0.00 0.64 0.64 1021.3
20260901122256 -17 296 3.2 17.7 0.00 0.64 0.64 1021.4
20260901122158 -17 299 4.8 17.7 0.00 0.64 0.64 1021.3
20260901122055 -17 264 6.4 17.7 0.00 0.64 0.64 1021.3
20260901121952 -17 296 9.7 17.7 0.00 0.64 0.64 1021.3
20260901121844 -17 302 9.7 20.9 0.00 0.64 0.64 1021.3
20260901121741 -17 292 9.7 20.9 0.00 0.64 0.64 1021.3
20260901121643 -17 264 9.7 20.9 0.00 0.64 0.64 1021.3
20260901121543 -17 275 4.8 20.9 0.00 0.64 0.64 1021.3
20260901121440 -17 230 4.8 20.9 0.00 0.64 0.64 1021.4
20260901121340 -17 226 3.2 20.9 0.00 0.64 0.64 1021.4
20260901121237 -17 262 6.4 20.9 0.00 0.64 0.64 1021.3
20260901121136 -17 272 9.7 20.9 0.00 0.64 0.64 1021.3
20260901121038 -17 248 9.7 20.9 0.00 0.64 0.64 1021.4
20260901120930 -17 238 8.0 20.9 0.00 0.64 0.64 1021.4
20260901120832 -17 250 6.4 19.3 0.00 0.64 0.64 1021.3
20260901120729 -17 248 6.4 19.3 0.00 0.64 0.64 1021.4
20260901120629 -17 254 6.4 19.3 0.00 0.64 0.64 1021.4
20260901120529 -17 228 11.3 19.3 0.00 0.64 0.64 1021.4
20260901120431 -17 288 9.7 19.3 0.00 0.64 0.64 1021.4
20260901120328 -17 265 6.4 17.7 0.00 0.64 0.64 1021.4
20260901120223 -17 250 6.4 17.7 0.00 0.64 0.64 1021.5
20260901120121 -17 286 6.4 17.7 0.00 0.64 0.64 1021.3
20260901120019 -17 230 4.8 17.7 0.00 0.64 0.64 1021.4
20260901115916 -17 262 4.8 17.7 0.00 0.64 0.64 1021.4
20260901115808 20 259 8.0 17.7 0.00 0.64 0.64 70 1021.4
20260901115702 20 275 9.7 17.7 0.00 0.64 0.64 70 1021.4
20260901115602 20 276 6.4 17.7 0.00 0.64 0.64 70 1021.4
20260901115503 20 234 3.2 16.1 0.00 0.64 0.64 70 1021.4
20260901115404 20 235 6.4 16.1 0.00 0.64 0.64 70 1021.4
20260901115306 20 235 6.4 16.1 0.00 0.64 0.64 70 1021.4
20260901115201 20 228 6.4 14.5 0.00 0.64 0.64 70 1021.4
20260901115101 20 224 8.0 14.5 0.00 0.64 0.64 70 1021.4
20260901115002 20 259 8.0 16.1 0.00 0.64 0.64 70 1021.3
20260901114859 20 255 8.0 16.1 0.00 0.64 0.64 70 1021.3
20260901114802 20 290 8.0 16.1 0.00 0.64 0.64 70 1021.3
20260901114700 20 279 6.4 16.1 0.00 0.64 0.64 69 1021.3
20260901114558 20 269 4.8 16.1 0.00 0.64 0.64 69 1021.3
20260901114457 20 234 4.8 16.1 0.00 0.64 0.64 69 1021.3
20260901114355 20 233 6.4 17.7 0.00 0.64 0.64 69 1021.3
20260901114254 20 275 8.0 17.7 0.00 0.64 0.64 69 1021.4
20260901114154 20 306 8.0 17.7 0.00 0.64 0.64 69 1021.3
20260901114054 20 264 6.4 17.7 0.00 0.64 0.64 71 1021.4
20260901113951 20 264 4.8 17.7 0.00 0.64 0.64 69 1021.4
20260901113850 20 262 8.0 17.7 0.00 0.64 0.64 69 1021.4
20260901113748 20 313 9.7 17.7 0.00 0.64 0.64 69 1021.4
20260901113645 20 266 6.4 17.7 0.00 0.64 0.64 70 1021.5
20260901113542 20 288 8.0 17.7 0.00 0.64 0.64 75 1021.4
20260901113441 20 255 9.7 17.7 0.00 0.64 0.64 75 1021.4
20260901113339 20 247 8.0 16.1 0.00 0.64 0.64 75 1021.4
20260901113240 20 248 8.0 14.5 0.00 0.64 0.64 75 1021.4
20260901113139 20 238 8.0 14.5 0.00 0.64 0.64 75 1021.5
20260901113038 20 262 6.4 14.5 0.00 0.64 0.64 75 1021.4
20260901112934 20 275 4.8 14.5 0.00 0.64 0.64 75 1021.4
20260901112834 20 259 6.4 14.5 0.00 0.64 0.64 75 1021.3
20260901112730 20 234 8.0 14.5 0.00 0.64 0.64 75 1021.4
20260901112630 20 271 6.4 14.5 0.00 0.64 0.64 75 1021.3
20260901112530 19 244 6.4 14.5 0.00 0.64 0.64 75 1021.5
20260901112429 19 298 8.0 14.5 0.00 0.64 0.64 75 1021.4
20260901112328 19 282 6.4 14.5 0.00 0.64 0.64 75 1021.4
20260901112226 -17 268 6.4 16.1 0.00 0.64 0.64 1021.4
20260901112123 -17 276 4.8 16.1 0.00 0.64 0.64 1021.4
20260901112020 -17 238 3.2 16.1 0.00 0.64 0.64 1021.4
20260901111921 -17 281 6.4 16.1 0.00 0.64 0.64 1021.4
20260901111820 -17 262 8.0 16.1 0.00 0.64 0.64 1021.5
20260901111718 -17 261 4.8 16.1 0.00 0.64 0.64 1021.4
20260901111619 -17 237 4.8 16.1 0.00 0.64 0.64 1021.4
20260901111515 -17 282 6.4 16.1 0.00 0.64 0.64 1021.4
20260901111413 -17 285 8.0 16.1 0.00 0.64 0.64 1021.4
20260901111313 -17 230 6.4 16.1 0.00 0.64 0.64 1021.4
20260901111213 -17 274 6.4 14.5 0.00 0.64 0.64 1021.4
20260901111112 -17 290 8.0 16.1 0.00 0.64 0.64 1021.4
20260901111011 -17 262 4.8 16.1 0.00 0.64 0.64 1021.5
20260901110908 -17 188 3.2 16.1 0.00 0.64 0.64 1021.4
20260901110803 -17 186 4.8 16.1 0.00 0.64 0.64 1021.4
20260901110702 -17 271 6.4 16.1 0.00 0.64 0.64 1021.3
20260901110602 -17 264 8.0 16.1 0.00 0.64 0.64 1021.4
20260901110503 -17 264 8.0 16.1 0.00 0.64 0.64 1021.4
20260901110402 -17 272 8.0 16.1 0.00 0.64 0.64 1021.3
20260901110301 -17 271 8.0 16.1 0.00 0.64 0.64 1021.3
20260901110201 -17 252 9.7 16.1 0.00 0.64 0.64 1021.3
20260901110001 -17 257 9.7 16.1 0.00 0.64 0.64 1021.3
20260901105901 -17 303 8.0 14.5 0.00 0.64 0.64 1021.3
20260901105801 19 258 6.4 14.5 0.00 0.64 0.64 75 1021.3
20260901105701 19 244 6.4 14.5 0.00 0.64 0.64 75 1021.3
20260901105603 19 282 6.4 11.3 0.00 0.64 0.64 75 1021.3
20260901105501 19 266 4.8 11.3 0.00 0.64 0.64 75 1021.3
20260901105401 19 266 4.8 11.3 0.00 0.64 0.64 75 1021.3
20260901105305 19 264 6.4 11.3 0.00 0.64 0.64 75 1021.3
20260901105202 19 258 4.8 11.3 0.00 0.64 0.64 75 1021.3
20260901105102 19 262 4.8 11.3 0.00 0.64 0.64 75 1021.3
20260901105002 19 262 4.8 11.3 0.00 0.64 0.64 75 1021.3
20260901104901 19 228 6.4 14.5 0.00 0.64 0.64 75 1021.3
20260901104802 -17 289 6.4 14.5 0.00 0.64 0.64 1021.3
20260901104703 -17 275 4.8 16.1 0.00 0.64 0.64 1021.2
20260901104601 -17 261 6.4 16.1 0.00 0.64 0.64 1021.2
20260901104501 -17 269 6.4 16.1 0.00 0.64 0.64 1021.3
20260901104403 20 274 6.4 16.1 0.00 0.64 0.64 75 1021.2
20260901104301 20 269 6.4 16.1 0.00 0.64 0.64 75 1021.3
20260901104202 20 298 6.4 16.1 0.00 0.64 0.64 75 1021.3
20260901104057 20 289 8.0 16.1 0.00 0.64 0.64 75 1021.2
20260901103957 20 285 9.7 16.1 0.00 0.64 0.64 75 1021.3
20260901103851 20 269 9.7 16.1 0.00 0.64 0.64 75 1021.3
20260901103751 20 241 9.7 16.1 0.00 0.64 0.64 75 1021.2
20260901103648 20 302 8.0 16.1 0.00 0.64 0.64 75 1021.2
20260901103549 20 286 6.4 16.1 0.00 0.64 0.64 75 1021.2
20260901103448 20 288 8.0 16.1 0.00 0.64 0.64 75 1021.3
20260901103344 -17 296 8.0 16.1 0.00 0.64 0.64 1021.2
20260901103242 20 276 6.4 16.1 0.00 0.64 0.64 75 1021.2
20260901103142 20 247 6.4 16.1 0.00 0.64 0.64 75 1021.3
20260901103042 20 282 6.4 16.1 0.00 0.64 0.64 75 1021.2
20260901102932 20 298 8.0 17.7 0.00 0.64 0.64 75 1021.3
20260901102832 20 272 9.7 17.7 0.00 0.64 0.64 75 1021.2
20260901102735 20 241 9.7 17.7 0.00 0.64 0.64 75 1021.2
20260901102633 20 272 8.0 17.7 0.00 0.64 0.64 75 1021.2
20260901102532 20 272 8.0 17.7 0.00 0.64 0.64 75 1021.2
20260901102431 20 281 8.0 17.7 0.00 0.64 0.64 75 1021.1
20260901102331 20 250 6.4 17.7 0.00 0.64 0.64 75 1021.3
20260901102227 20 283 8.0 17.7 0.00 0.64 0.64 75 1021.2
20260901102127 20 259 11.3 17.7 0.00 0.64 0.64 75 1021.3
20260901102026 20 266 9.7 17.7 0.00 0.64 0.64 74 1021.2
20260901101923 19 285 8.0 16.1 0.00 0.64 0.64 74 1021.2
20260901101822 19 272 8.0 16.1 0.00 0.64 0.64 76 1021.2
20260901101720 19 310 8.0 16.1 0.00 0.64 0.64 73 1021.2
20260901101619 19 286 8.0 16.1 0.00 0.64 0.64 74 1021.2
20260901101519 19 279 8.0 16.1 0.00 0.64 0.64 72 1021.3
20260901101419 19 268 8.0 16.1 0.00 0.64 0.64 72 1021.2
20260901101319 19 290 8.0 17.7 0.00 0.64 0.64 73 1021.4
20260901101216 19 269 9.7 17.7 0.00 0.64 0.64 73 1021.3
20260901101115 19 262 9.7 17.7 0.00 0.64 0.64 76 1021.2
20260901101015 19 276 6.4 17.7 0.00 0.64 0.64 76 1021.2
20260901100914 19 293 6.4 17.7 0.00 0.64 0.64 76 1021.3
20260901100814 19 269 8.0 17.7 0.00 0.64 0.64 76 1021.4
20260901100714 19 264 8.0 17.7 0.00 0.64 0.64 76 1021.3
20260901100617 19 288 9.7 17.7 0.00 0.64 0.64 76 1021.3
20260901100514 19 255 8.0 17.7 0.00 0.64 0.64 76 1021.2
20260901100412 19 262 6.4 17.7 0.00 0.64 0.64 76 1021.3
20260901100312 19 289 8.0 16.1 0.00 0.64 0.64 77 1021.3
20260901100210 19 262 6.4 16.1 0.00 0.64 0.64 79 1021.2
20260901100111 19 233 3.2 16.1 0.00 0.64 0.64 79 1021.2
20260901100011 18 293 4.8 16.1 0.00 0.64 0.64 77 1021.3
20260901095912 18 293 8.0 16.1 0.00 0.64 0.64 77 1021.2
20260901095809 18 272 8.0 16.1 0.00 0.64 0.64 77 1021.3
20260901095710 18 303 6.4 16.1 0.00 0.64 0.64 77 1021.3
20260901095609 18 278 6.4 16.1 0.00 0.64 0.64 77 1021.3
20260901095509 18 262 8.0 16.1 0.00 0.64 0.64 77 1021.3
20260901095410 18 251 8.0 16.1 0.00 0.64 0.64 76 1021.2
20260901095308 19 282 9.7 16.1 0.00 0.64 0.64 76 1021.2
20260901095208 19 248 9.7 16.1 0.00 0.64 0.64 76 1021.2
20260901095108 19 283 8.0 16.1 0.00 0.64 0.64 77 1021.2
20260901095008 19 286 8.0 16.1 0.00 0.64 0.64 77 1021.2
20260901094906 19 285 8.0 16.1 0.00 0.64 0.64 77 1021.2
20260901094804 19 268 6.4 11.3 0.00 0.64 0.64 77 1021.3
20260901094707 19 250 6.4 14.5 0.00 0.64 0.64 77 1021.1
20260901094604 19 285 6.4 14.5 0.00 0.64 0.64 77 1021.2
20260901094504 19 268 6.4 14.5 0.00 0.64 0.64 77 1021.2
20260901094404 19 269 6.4 14.5 0.00 0.64 0.64 77 1021.1
20260901094302 19 266 8.0 14.5 0.00 0.64 0.64 77 1021.1
20260901094201 19 259 6.4 16.1 0.00 0.64 0.64 77 1021.1
20260901094101 19 271 6.4 16.1 0.00 0.64 0.64 77 1021.1
20260901094002 19 274 8.0 16.1 0.00 0.64 0.64 78 1021.1
20260901093902 19 276 8.0 16.1 0.00 0.64 0.64 78 1021.2
20260901093802 19 264 6.4 16.1 0.00 0.64 0.64 78 1021.1
20260901093701 19 285 6.4 16.1 0.00 0.64 0.64 77 1021.1
20260901093601 19 285 6.4 16.1 0.00 0.64 0.64 77 1021.0
20260901093503 19 257 6.4 16.1 0.00 0.64 0.64 77 1021.1
20260901093403 19 262 8.0 16.1 0.00 0.64 0.64 77 1021.1
20260901093303 19 259 6.4 16.1 0.00 0.64 0.64 78 1021.1
20260901093202 19 293 6.4 16.1 0.00 0.64 0.64 76 1021.0
20260901093101 19 261 6.4 16.1 0.00 0.64 0.64 76 1021.0
20260901093001 19 303 8.0 16.1 0.00 0.64 0.64 78 1021.0
20260901092901 19 283 8.0 16.1 0.00 0.64 0.64 77 1021.1
20260901092801 19 303 6.4 16.1 0.00 0.64 0.64 77 1021.1
20260901092701 19 307 6.4 16.1 0.00 0.64 0.64 78 1021.1
20260901092600 18 276 6.4 16.1 0.00 0.64 0.64 77 1021.0
20260901092501 18 276 6.4 16.1 0.00 0.64 0.64 77 1021.1
20260901092358 18 265 9.7 16.1 0.00 0.64 0.64 77 1021.0
20260901092257 18 276 8.0 16.1 0.00 0.64 0.64 78 1021.1
20260901092157 18 286 6.4 16.1 0.00 0.64 0.64 78 1021.0
20260901092056 18 278 6.4 16.1 0.00 0.64 0.64 78 1021.1
20260901091956 18 286 6.4 16.1 0.00 0.64 0.64 78 1021.1
20260901091857 18 266 4.8 16.1 0.00 0.64 0.64 79 1021.0
20260901091756 19 261 4.8 16.1 0.00 0.64 0.64 79 1021.0
20260901091657 19 264 6.4 16.1 0.00 0.64 0.64 78 1021.1
20260901091555 19 262 8.0 16.1 0.00 0.64 0.64 78 1021.0
20260901091455 19 281 6.4 16.1 0.00 0.64 0.64 77 1021.0
20260901091354 19 266 8.0 16.1 0.00 0.64 0.64 79 1021.0
20260901091255 19 293 8.0 16.1 0.00 0.64 0.64 79 1021.0
20260901091153 19 261 6.4 16.1 0.00 0.64 0.64 78 1020.9
20260901091050 19 264 6.4 14.5 0.00 0.64 0.64 80 1020.9
20260901090950 18 274 4.8 14.5 0.00 0.64 0.64 80 1021.0
20260901090850 18 261 6.4 14.5 0.00 0.64 0.64 80 1021.0
20260901090749 18 276 8.0 14.5 0.00 0.64 0.64 83 1021.0
20260901090649 18 282 8.0 14.5 0.00 0.64 0.64 83 1021.0
20260901090545 18 283 9.7 11.3 0.00 0.64 0.64 83 1020.9
20260901090442 18 278 8.0 14.5 0.00 0.64 0.64 83 1020.9
20260901090343 18 279 6.4 14.5 0.00 0.64 0.64 83 1021.0
20260901090243 18 275 4.8 14.5 0.00 0.64 0.64 82 1020.9
20260901090142 17 271 6.4 14.5 0.00 0.64 0.64 82 1020.9
20260901090041 17 271 4.8 14.5 0.00 0.64 0.64 82 1020.9
20260901085938 17 271 4.8 14.5 0.00 0.64 0.64 81 1020.9
20260901085838 18 271 6.4 14.5 0.00 0.64 0.64 80 1020.9
20260901085737 18 269 6.4 14.5 0.00 0.64 0.64 81 1020.9
20260901085635 18 278 6.4 14.5 0.00 0.64 0.64 81 1021.0
20260901085536 18 278 4.8 14.5 0.00 0.64 0.64 81 1020.9
20260901085435 18 298 4.8 14.5 0.00 0.64 0.64 81 1020.9
20260901085331 18 274 6.4 14.5 0.00 0.64 0.64 81 1020.9
20260901085230 18 278 6.4 17.7 0.00 0.64 0.64 81 1020.8
20260901085130 18 268 6.4 17.7 0.00 0.64 0.64 81 1020.8
20260901085030 18 269 6.4 17.7 0.00 0.64 0.64 81 1020.8
20260901084929 18 254 6.4 17.7 0.00 0.64 0.64 79 1020.8
20260901084829 18 255 8.0 17.7 0.00 0.64 0.64 79 1020.8
20260901084723 18 258 8.0 17.7 0.00 0.64 0.64 79 1020.8
20260901084620 18 265 8.0 17.7 0.00 0.64 0.64 79 1020.7
20260901084521 18 265 8.0 20.9 0.00 0.64 0.64 79 1020.7
20260901084419 18 271 9.7 20.9 0.00 0.64 0.64 78 1020.8
20260901084317 18 266 8.0 20.9 0.00 0.64 0.64 79 1020.7
20260901084215 18 275 6.4 20.9 0.00 0.64 0.64 78 1020.8
20260901084109 19 299 8.0 20.9 0.00 0.64 0.64 78 1020.7
20260901084010 19 264 8.0 20.9 0.00 0.64 0.64 78 1020.8
20260901083907 19 252 6.4 20.9 0.00 0.64 0.64 78 1020.8
20260901083803 19 265 6.4 20.9 0.00 0.64 0.64 78 1020.7
20260901083704 19 271 8.0 20.9 0.00 0.64 0.64 78 1020.7
20260901083602 19 320 6.4 20.9 0.00 0.64 0.64 78 1020.7
20260901083501 19 268 6.4 17.7 0.00 0.64 0.64 78 1020.7
20260901083401 19 247 6.4 17.7 0.00 0.64 0.64 79 1020.7
20260901083301 19 282 8.0 17.7 0.00 0.64 0.64 79 1020.7
20260901083201 19 278 9.7 17.7 0.00 0.64 0.64 79 1020.7
20260901083102 19 281 4.8 17.7 0.00 0.64 0.64 80 1020.7
20260901083002 19 279 3.2 17.7 0.00 0.64 0.64 80 1020.7
20260901082904 18 279 6.4 17.7 0.00 0.64 0.64 80 1020.6
20260901082801 18 281 6.4 17.7 0.00 0.64 0.64 80 1020.6
20260901082701 18 272 6.4 16.1 0.00 0.64 0.64 80 1020.6
20260901082601 18 289 6.4 16.1 0.00 0.64 0.64 80 1020.7
20260901082501 18 269 6.4 16.1 0.00 0.64 0.64 80 1020.7
20260901082401 18 264 6.4 16.1 0.00 0.64 0.64 79 1020.6
20260901082302 18 268 6.4 16.1 0.00 0.64 0.64 79 1020.5
20260901082201 18 268 6.4 16.1 0.00 0.64 0.64 79 1020.5
20260901082101 18 281 4.8 16.1 0.00 0.64 0.64 77 1020.5
20260901082001 18 296 6.4 16.1 0.00 0.64 0.64 77 1020.5
20260901081902 18 292 8.0 16.1 0.00 0.64 0.64 77 1020.5
20260901081801 19 282 9.7 16.1 0.00 0.64 0.64 77 1020.5
20260901081704 19 300 9.7 16.1 0.00 0.64 0.64 77 1020.4
20260901081603 19 290 9.7 16.1 0.00 0.64 0.64 79 1020.5
20260901081502 19 278 6.4 16.1 0.00 0.64 0.64 79 1020.4
20260901081402 19 292 6.4 16.1 0.00 0.64 0.64 79 1020.4
20260901081303 19 289 6.4 16.1 0.00 0.64 0.64 79 1020.4
20260901081202 18 282 4.8 16.1 0.00 0.64 0.64 80 1020.4
20260901081105 18 275 6.4 16.1 0.00 0.64 0.64 80 1020.4
20260901081001 18 278 8.0 16.1 0.00 0.64 0.64 80 1020.4
20260901080902 18 276 8.0 16.1 0.00 0.64 0.64 79 1020.4
20260901080802 18 279 6.4 16.1 0.00 0.64 0.64 79 1020.4
20260901080704 18 266 4.8 16.1 0.00 0.64 0.64 79 1020.3
20260901080603 18 292 3.2 16.1 0.00 0.64 0.64 79 1020.4
20260901080503 18 292 3.2 16.1 0.00 0.64 0.64 80 1020.4
20260901080401 18 292 6.4 16.1 0.00 0.64 0.64 81 1020.4
20260901080301 18 295 6.4 16.1 0.00 0.64 0.64 81 1020.4
20260901080202 18 268 6.4 16.1 0.00 0.64 0.64 80 1020.4
20260901080106 18 283 8.0 16.1 0.00 0.64 0.64 81 1020.5
20260901080004 18 271 6.4 16.1 0.00 0.64 0.64 81 1020.4
20260901075901 18 259 6.4 16.1 0.00 0.64 0.64 79 1020.3
20260901075802 18 259 6.4 16.1 0.00 0.64 0.64 82 1020.3
20260901075701 18 269 6.4 16.1 0.00 0.64 0.64 82 1020.3
20260901075602 18 264 6.4 16.1 0.00 0.64 0.64 82 1020.4
20260901075503 18 265 6.4 16.1 0.00 0.64 0.64 83 1020.4
20260901075401 18 274 6.4 16.1 0.00 0.64 0.64 84 1020.3
20260901075307 17 276 6.4 16.1 0.00 0.64 0.64 84 1020.4
20260901075201 17 279 6.4 16.1 0.00 0.64 0.64 84 1020.4
20260901075103 17 258 6.4 14.5 0.00 0.64 0.64 85 1020.3
20260901075004 17 262 6.4 14.5 0.00 0.64 0.64 85 1020.3
20260901074902 17 261 6.4 14.5 0.00 0.64 0.64 84 1020.3
20260901074801 17 265 4.8 14.5 0.00 0.64 0.64 84 1020.3
20260901074701 17 275 3.2 11.3 0.00 0.64 0.64 84 1020.2
20260901074601 17 276 3.2 14.5 0.00 0.64 0.64 84 1020.2
20260901074501 18 276 3.2 14.5 0.00 0.64 0.64 83 1020.2
20260901074401 18 276 3.2 14.5 0.00 0.64 0.64 82 1020.3
20260901074301 18 275 4.8 14.5 0.00 0.64 0.64 82 1020.2
20260901074202 18 275 4.8 14.5 0.00 0.64 0.64 82 1020.2
20260901074102 18 275 4.8 14.5 0.00 0.64 0.64 82 1020.2
20260901074002 18 278 6.4 14.5 0.00 0.64 0.64 81 1020.2
20260901073903 18 282 6.4 14.5 0.00 0.64 0.64 81 1020.2
20260901073805 18 278 6.4 14.5 0.00 0.64 0.64 82 1020.2
20260901073704 18 240 6.4 14.5 0.00 0.64 0.64 83 1020.1
20260901073601 18 248 6.4 14.5 0.00 0.64 0.64 83 1020.1
20260901073501 18 289 6.4 14.5 0.00 0.64 0.64 83 1020.1
20260901073401 18 286 6.4 14.5 0.00 0.64 0.64 83 1020.1
20260901073301 18 288 8.0 14.5 0.00 0.64 0.64 83 1020.1
20260901073200 18 265 8.0 16.1 0.00 0.64 0.64 82 1020.1
20260901073101 18 247 6.4 16.1 0.00 0.64 0.64 82 1020.1
20260901073001 18 264 6.4 16.1 0.00 0.64 0.64 82 1020.1
20260901072901 18 262 6.4 16.1 0.00 0.64 0.64 82 1020.1
20260901072801 18 264 8.0 16.1 0.00 0.64 0.64 82 1020.0
20260901072701 18 274 6.4 16.1 0.00 0.64 0.64 82 1019.9
20260901072604 18 268 6.4 16.1 0.00 0.64 0.64 82 1020.0
20260901072506 18 274 9.7 16.1 0.00 0.64 0.64 82 1020.0
20260901072404 18 252 8.0 16.1 0.00 0.64 0.64 84 1020.0
20260901072308 18 231 8.0 16.1 0.00 0.64 0.64 85 1020.0
20260901072201 18 274 6.4 11.3 0.00 0.64 0.64 85 1020.0
20260901072101 18 269 6.4 11.3 0.00 0.64 0.64 85 1020.0
20260901072002 18 269 4.8 11.3 0.00 0.64 0.64 85 1019.9
20260901071904 18 268 4.8 9.7 0.00 0.64 0.64 85 1019.9
20260901071801 18 266 3.2 9.7 0.00 0.64 0.64 85 1019.9
20260901071702 18 268 3.2 9.7 0.00 0.64 0.64 84 1019.9
20260901071600 18 268 3.2 9.7 0.00 0.64 0.64 85 1019.9
20260901071502 18 268 4.8 9.7 0.00 0.64 0.64 85 1019.9
20260901071401 18 268 4.8 9.7 0.00 0.64 0.64 85 1019.9
20260901071301 18 268 4.8 9.7 0.00 0.64 0.64 86 1019.9
20260901071204 18 265 4.8 9.7 0.00 0.64 0.64 88 1019.9
20260901071102 18 266 4.8 9.7 0.00 0.64 0.64 89 1019.9
20260901071001 18 257 3.2 9.7 0.00 0.64 0.64 89 1019.9
20260901070902 17 259 3.2 6.4 0.00 0.64 0.64 89 1019.9
20260901070801 17 258 3.2 6.4 0.00 0.64 0.64 89 1019.8
20260901070701 17 258 1.6 6.4 0.00 0.64 0.64 89 1019.9
20260901070601 17 258 3.2 11.3 0.00 0.64 0.64 89 1019.9
20260901070500 17 258 4.8 11.3 0.00 0.64 0.64 89 1019.9
20260901070401 17 264 4.8 11.3 0.00 0.64 0.64 88 1019.9
20260901070301 17 264 3.2 11.3 0.00 0.64 0.64 89 1019.9
20260901070201 17 264 3.2 11.3 0.00 0.64 0.64 89 1019.9
20260901070001 17 264 1.6 11.3 0.00 0.64 0.64 90 1019.9
20260901065904 17 264 1.6 11.3 0.00 0.64 0.64 91 1019.8
20260901065800 17 264 3.2 11.3 0.00 0.64 0.64 90 1019.9
20260901065701 17 264 6.4 11.3 0.00 0.64 0.64 90 1019.9
20260901065601 17 262 4.8 9.7 0.00 0.64 0.64 91 1019.9
20260901065501 17 279 3.2 8.0 0.00 0.64 0.64 91 1019.8
20260901065402 17 278 3.2 8.0 0.00 0.64 0.64 91 1019.8
20260901065305 17 285 3.2 9.7 0.00 0.64 0.64 90 1019.8
20260901065202 16 285 4.8 9.7 0.00 0.64 0.64 90 1019.8
20260901065103 16 286 3.2 9.7 0.00 0.64 0.64 90 1019.8
20260901065001 16 286 3.2 9.7 0.00 0.64 0.64 90 1019.8
20260901064900 16 286 3.2 9.7 0.00 0.64 0.64 91 1019.7
20260901064802 16 286 3.2 9.7 0.00 0.64 0.64 91 1019.7
20260901064700 16 286 4.8 9.7 0.00 0.64 0.64 91 1019.7
20260901064601 16 283 4.8 9.7 0.00 0.64 0.64 91 1019.8
20260901064501 16 282 4.8 9.7 0.00 0.64 0.64 91 1019.7
20260901064403 16 283 4.8 9.7 0.00 0.64 0.64 91 1019.8
20260901064303 16 288 4.8 8.0 0.00 0.64 0.64 92 1019.8
20260901064201 16 266 4.8 8.0 0.00 0.64 0.64 92 1019.7
20260901064101 16 265 4.8 9.7 0.00 0.64 0.64 92 1019.7
20260901064001 16 265 4.8 9.7 0.00 0.64 0.64 92 1019.7
20260901063901 16 264 3.2 9.7 0.00 0.64 0.64 92 1019.7
20260901063801 16 265 3.2 9.7 0.00 0.64 0.64 92 1019.8
20260901063702 16 265 4.8 9.7 0.00 0.64 0.64 91 1019.8
20260901063601 16 265 4.8 9.7 0.00 0.64 0.64 91 1019.7
20260901063501 16 265 4.8 9.7 0.00 0.64 0.64 91 1019.7
20260901063403 16 266 4.8 9.7 0.00 0.64 0.64 91 1019.7
20260901063303 16 265 6.4 9.7 0.00 0.64 0.64 91 1019.7
20260901063203 16 265 4.8 9.7 0.00 0.64 0.64 92 1019.6
20260901063102 16 268 4.8 9.7 0.00 0.64 0.64 92 1019.6
20260901063001 16 268 4.8 9.7 0.00 0.64 0.64 92 1019.6
20260901062901 16 266 3.2 8.0 0.00 0.64 0.64 92 1019.6
20260901062801 16 266 3.2 8.0 0.00 0.64 0.64 92 1019.6
20260901062701 16 266 3.2 8.0 0.00 0.64 0.64 92 1019.7
20260901062601 16 268 3.2 8.0 0.00 0.64 0.64 92 1019.6
20260901062502 16 268 3.2 8.0 0.00 0.64 0.64 92 1019.5
20260901062401 16 268 4.8 8.0 0.00 0.64 0.64 92 1019.6
20260901062301 16 261 3.2 8.0 0.00 0.64 0.64 93 1019.6
20260901062206 16 261 4.8 8.0 0.00 0.64 0.64 93 1019.5
20260901062104 16 261 3.2 8.0 0.00 0.64 0.64 93 1019.5
20260901062003 16 261 3.2 6.4 0.00 0.64 0.64 93 1019.4
20260901061901 16 261 3.2 6.4 0.00 0.64 0.64 93 1019.4
20260901061801 16 255 3.2 6.4 0.00 0.64 0.64 93 1019.5
20260901061701 16 255 3.2 6.4 0.00 0.64 0.64 93 1019.5
20260901061601 16 254 3.2 6.4 0.00 0.64 0.64 93 1019.4
20260901061501 15 254 3.2 6.4 0.00 0.64 0.64 93 1019.4
20260901061401 15 254 3.2 6.4 0.00 0.64 0.64 93 1019.4
20260901061301 15 252 3.2 8.0 0.00 0.64 0.64 93 1019.4
20260901061201 15 252 3.2 8.0 0.00 0.64 0.64 93 1019.4
20260901061102 15 252 3.2 8.0 0.00 0.64 0.64 93 1019.4
20260901061001 15 252 3.2 8.0 0.00 0.64 0.64 93 1019.4
20260901060904 15 251 3.2 8.0 0.00 0.64 0.64 93 1019.3
20260901060804 15 251 3.2 8.0 0.00 0.64 0.64 93 1019.3
20260901060704 15 250 3.2 8.0 0.00 0.64 0.64 93 1019.3
20260901060602 15 247 3.2 8.0 0.00 0.64 0.64 93 1019.2
20260901060501 15 244 4.8 8.0 0.00 0.64 0.64 93 1019.3
20260901060401 15 244 4.8 8.0 0.00 0.64 0.64 93 1019.4
20260901060301 15 272 4.8 8.0 0.00 0.64 0.64 93 1019.3
20260901060201 15 272 3.2 8.0 0.00 0.64 0.64 93 1019.3
20260901060101 15 272 3.2 8.0 0.00 0.66 0.64 93 1019.3
20260901060001 15 272 3.2 8.0 0.00 0.69 0.64 93 1019.3
20260901055901 15 272 3.2 8.0 0.00 0.71 0.64 93 1019.3
20260901055801 15 272 3.2 8.0 0.00 0.74 0.64 93 1019.3
20260901055704 15 272 3.2 8.0 0.00 0.74 0.64 93 1019.2
20260901055603 15 272 3.2 8.0 0.00 0.76 0.64 93 1019.3
20260901055503 15 272 3.2 8.0 0.00 0.76 0.64 93 1019.2
20260901055405 15 272 4.8 8.0 0.00 0.76 0.64 93 1019.2
20260901055301 15 272 4.8 8.0 0.00 0.76 0.64 93 1019.2
20260901055201 15 272 4.8 8.0 0.00 0.76 0.64 93 1019.2
20260901055101 15 272 4.8 8.0 0.00 0.79 0.64 93 1019.2
20260901055001 15 272 4.8 8.0 0.00 0.79 0.64 93 1019.2
20260901054902 15 269 4.8 8.0 0.00 0.79 0.64 94 1019.2
20260901054802 15 279 4.8 8.0 0.00 0.79 0.64 94 1019.1
20260901054700 15 279 4.8 8.0 0.00 0.79 0.64 94 1019.1
20260901054602 15 279 4.8 8.0 0.00 0.79 0.64 94 1019.1
20260901054501 15 279 3.2 8.0 0.00 0.79 0.64 93 1019.1
20260901054401 15 281 3.2 8.0 0.00 0.79 0.64 93 1019.1
20260901054303 15 278 3.2 8.0 0.00 0.79 0.64 93 1019.1
20260901054206 15 278 4.8 8.0 0.00 0.79 0.64 93 1019.1
20260901054103 15 278 4.8 8.0 0.00 0.79 0.64 93 1019.1
20260901054002 15 278 3.2 8.0 0.00 0.79 0.64 93 1019.1
20260901053900 15 278 3.2 8.0 0.00 0.79 0.64 93 1019.1
20260901053802 15 278 3.2 8.0 0.00 0.79 0.64 93 1019.1
20260901053701 15 278 3.2 8.0 0.00 0.79 0.64 93 1019.0
20260901053602 15 278 3.2 6.4 0.00 0.79 0.64 93 1019.0
20260901053501 15 278 3.2 6.4 0.00 0.79 0.64 93 1019.1
20260901053403 15 278 3.2 6.4 0.00 0.79 0.64 93 1019.0
20260901053303 15 278 3.2 8.0 0.00 0.79 0.64 93 1019.0
20260901053201 15 278 3.2 8.0 0.00 0.79 0.64 93 1019.0
20260901053101 15 278 4.8 8.0 0.00 0.79 0.64 93 1019.0
20260901053003 15 279 3.2 8.0 0.00 0.79 0.64 93 1019.1
20260901052901 15 279 3.2 8.0 0.00 0.79 0.64 93 1019.0
20260901052801 15 279 3.2 8.0 0.00 0.79 0.64 93 1019.0
20260901052701 15 279 3.2 8.0 0.00 0.79 0.64 93 1018.9
20260901052602 15 279 4.8 8.0 0.00 0.79 0.64 94 1018.9
20260901052502 15 279 6.4 8.0 0.00 0.79 0.64 94 1019.0
20260901052400 15 279 4.8 8.0 0.00 0.79 0.64 94 1019.0
20260901052306 15 279 4.8 8.0 0.00 0.79 0.64 94 1019.0
20260901052202 15 279 4.8 8.0 0.00 0.79 0.64 94 1019.0
20260901052101 15 279 6.4 8.0 0.00 0.79 0.64 94 1019.0
20260901052001 15 281 6.4 8.0 0.00 0.79 0.64 94 1018.9
20260901051901 15 279 4.8 8.0 0.00 0.79 0.64 94 1019.0
20260901051801 15 282 3.2 6.4 0.00 0.79 0.64 94 1018.9
20260901051701 15 281 4.8 6.4 0.00 0.79 0.64 94 1018.9
20260901051601 15 279 4.8 6.4 0.00 0.79 0.64 94 1018.9
20260901051501 15 279 3.2 6.4 0.00 0.79 0.64 94 1018.9
20260901051403 15 279 4.8 8.0 0.03 0.79 0.64 94 1018.9
20260901051303 15 279 4.8 8.0 0.03 0.79 0.64 94 1018.9
20260901051205 15 281 3.2 8.0 0.03 0.79 0.64 94 1018.9
20260901051104 15 281 3.2 8.0 0.03 0.79 0.64 94 1018.9
20260901051002 15 279 3.2 8.0 0.03 0.79 0.64 94 1018.8
20260901050901 15 279 3.2 8.0 0.03 0.79 0.64 94 1018.9
20260901050801 15 279 3.2 8.0 0.03 0.79 0.64 95 1018.8
20260901050701 15 279 3.2 8.0 0.03 0.79 0.64 95 1018.8
20260901050602 15 281 4.8 8.0 0.03 0.79 0.64 95 1018.9
20260901050501 15 281 4.8 8.0 0.03 0.79 0.64 95 1018.9
20260901050401 15 276 4.8 8.0 0.03 0.79 0.64 95 1018.8
20260901050302 15 278 3.2 8.0 0.03 0.79 0.64 95 1018.8
20260901050201 15 278 3.2 8.0 0.03 0.79 0.64 94 1018.8
20260901050001 15 278 4.8 8.0 0.03 0.79 0.61 94 1018.8
20260901045901 15 278 3.2 8.0 0.03 0.79 0.61 94 1018.8
20260901045801 15 278 3.2 8.0 0.03 0.79 0.61 94 1018.8
20260901045702 15 278 3.2 8.0 0.03 0.79 0.61 94 1018.7
20260901045602 15 278 3.2 8.0 0.03 0.79 0.61 94 1018.7
20260901045503 15 278 3.2 8.0 0.03 0.79 0.61 94 1018.7
20260901045402 15 278 4.8 8.0 0.03 0.79 0.61 94 1018.7
20260901045302 15 278 3.2 8.0 0.03 0.79 0.61 95 1018.7
20260901045201 15 279 3.2 8.0 0.03 0.79 0.61 95 1018.6
20260901045101 15 279 3.2 8.0 0.03 0.79 0.61 95 1018.7
20260901045003 15 279 3.2 8.0 0.03 0.81 0.61 95 1018.6
20260901044902 15 279 3.2 8.0 0.03 0.81 0.61 95 1018.6
20260901044801 15 279 4.8 8.0 0.03 0.84 0.61 96 1018.6
20260901044701 15 279 3.2 9.7 0.03 0.84 0.61 96 1018.6
20260901044602 15 279 3.2 9.7 0.03 0.84 0.61 96 1018.6
20260901044505 15 279 4.8 9.7 0.03 0.84 0.61 96 1018.7
20260901044403 15 279 4.8 9.7 0.03 0.86 0.61 97 1018.6
20260901044303 15 278 4.8 9.7 0.03 0.86 0.61 97 1018.7
20260901044201 -17 278 3.2 9.7 0.03 0.86 0.61 1018.6
20260901044101 15 276 3.2 9.7 0.03 0.86 0.61 97 1018.7
20260901044001 15 276 3.2 9.7 0.03 0.86 0.61 97 1018.7
20260901043901 15 276 4.8 9.7 0.03 0.89 0.61 97 1018.6
20260901043802 15 276 4.8 9.7 0.03 0.89 0.61 97 1018.6
20260901043701 15 278 3.2 6.4 0.03 0.89 0.61 97 1018.6
20260901043601 15 278 3.2 8.0 0.03 0.89 0.61 97 1018.6
20260901043501 15 278 3.2 8.0 0.03 0.89 0.61 97 1018.6
20260901043401 15 278 3.2 8.0 0.03 0.89 0.61 97 1018.6
20260901043302 15 278 3.2 8.0 0.03 0.89 0.61 97 1018.6
20260901043203 15 278 3.2 8.0 0.03 0.89 0.61 97 1018.7
20260901043103 15 278 3.2 8.0 0.03 0.89 0.61 97 1018.6
20260901043002 15 278 3.2 8.0 0.03 0.89 0.61 97 1018.6
20260901042900 15 278 3.2 8.0 0.03 0.89 0.61 97 1018.6
20260901042802 15 278 4.8 8.0 0.03 0.89 0.61 97 1018.6
20260901042700 15 278 3.2 8.0 0.03 0.89 0.61 97 1018.6
20260901042601 15 279 3.2 6.4 0.03 0.91 0.61 97 1018.6
20260901042502 15 279 4.8 6.4 0.03 0.94 0.61 97 1018.6
20260901042400 15 279 4.8 6.4 0.03 0.94 0.61 97 1018.6
20260901042301 15 279 3.2 6.4 0.03 0.94 0.61 97 1018.6
20260901042201 15 281 3.2 6.4 0.03 0.94 0.61 97 1018.6
20260901042103 15 279 4.8 4.8 0.03 0.94 0.61 97 1018.5
20260901042001 15 279 3.2 4.8 0.03 0.94 0.61 97 1018.5
20260901041904 15 279 3.2 4.8 0.03 0.94 0.61 97 1018.4
20260901041803 15 279 3.2 4.8 0.03 0.94 0.61 97 1018.4
20260901041701 15 279 3.2 4.8 0.03 0.94 0.61 97 1018.4
20260901041601 -17 279 3.2 4.8 0.03 0.94 0.61 1018.3
20260901041500 -17 279 3.2 4.8 0.03 0.94 0.61 1018.3
20260901041402 -17 279 3.2 4.8 0.00 0.94 0.61 1018.2
20260901041301 -17 279 1.6 4.8 0.00 0.94 0.61 1018.3
20260901041201 -17 279 1.6 4.8 0.00 0.94 0.61 1018.3
20260901041101 -17 279 3.2 6.4 0.00 0.94 0.61 1018.3
20260901041003 -17 279 3.2 6.4 0.00 0.94 0.61 1018.2
20260901040901 -17 278 3.2 6.4 0.00 0.94 0.61 1018.2
20260901040801 -17 278 3.2 6.4 0.00 0.94 0.61 1018.2
20260901040700 -17 278 1.6 6.4 0.00 0.94 0.61 1018.3
20260901040601 -17 278 1.6 6.4 0.00 0.94 0.61 1018.2
20260901040502 -17 278 3.2 6.4 0.00 0.94 0.61 1018.2
20260901040402 -17 278 3.2 6.4 0.00 0.94 0.61 1018.2
20260901040302 -17 278 3.2 6.4 0.00 0.94 0.61 1018.2
20260901040203 -17 278 3.2 6.4 0.00 0.94 0.61 1018.2
20260901040001 -17 278 3.2 6.4 0.00 0.94 0.61 1018.2
20260901035900 -17 278 3.2 6.4 0.00 0.94 0.61 1018.2
20260901035801 -17 278 3.2 6.4 0.00 0.94 0.61 1018.3
20260901035702 -17 278 3.2 6.4 0.00 0.94 0.61 1018.2
20260901035604 -17 278 3.2 6.4 0.00 0.94 0.61 1018.2
20260901035501 -17 278 3.2 6.4 0.00 0.94 0.61 1018.2
20260901035401 -17 278 3.2 6.4 0.00 0.94 0.61 1018.2
20260901035305 -17 271 3.2 6.4 0.00 0.94 0.61 1018.2
20260901035202 -17 271 3.2 6.4 0.00 0.94 0.61 1018.2
20260901035103 -17 271 3.2 6.4 0.00 0.94 0.61 1018.2
20260901035001 -17 271 3.2 6.4 0.00 0.94 0.61 1018.3
20260901034901 -17 269 3.2 6.4 0.00 0.94 0.61 1018.1
20260901034801 -17 271 3.2 6.4 0.00 0.94 0.61 1018.2
20260901034701 -17 271 3.2 4.8 0.00 0.94 0.61 1018.2
20260901034603 -17 269 3.2 4.8 0.00 0.94 0.61 1018.2
20260901034500 -17 269 3.2 4.8 0.00 0.94 0.61 1018.2